M I D A S
Marine Information and Data Acquisition System
Tripno 1859 of the Zeeleeuw from 2010-04-12 07:55:30 to 2010-04-12 13:48:43
Back to CruiseResearch ActivitiesStationsMapUnderway DataData graphs

EquipmentUnitsComment
TimeDGPSUTC
LatitudeDGPSDM.mWGS84
LongitudeDGPSDM.mWGS84
TemperatureSBE03/SBE38deg celciusITS90
ConductivitySBE21S/mITS90
SalinitySBE21 Practical Salinity Units
ChlorophylAChelsea fluorimeterg/lCalibrated in Aceton
Missing or incorrect values are displayed as -999
Sea surface data collected by the RV Zeeleeuw from 2010-04-12 07:55:59 to 2010-04-12 13:50:35
                                                                                    Next 1000 lines
Time Latitude Longitude Temperature Conductivity Salinity ChlorophylA
2010-04-12 07:56:10 51°13.662 2°55.954 16.1389 0.035828 0.20348 -1.000568
2010-04-12 07:56:15 51°13.663 2°55.951 16.2362 0.035828 0.203484 -1.000568
2010-04-12 07:56:19 51°13.664 2°55.948 16.224 0.035828 0.20348 -1.000568
2010-04-12 07:56:24 51°13.665 2°55.944 16.2329 0.035828 0.203484 -1.000568
2010-04-12 07:56:30 51°13.666 2°55.938 16.2345 0.035828 0.203487 -1.035392
2010-04-12 07:56:35 51°13.667 2°55.933 16.2375 0.035828 0.203487 -1.035392
2010-04-12 07:56:40 51°13.669 2°55.927 16.2358 0.035828 0.203487 -1.035392
2010-04-12 07:56:45 51°13.67 2°55.921 16.2423 0.035828 0.203487 -1.000568
2010-04-12 07:56:50 51°13.671 2°55.915 16.2339 0.035828 0.20349 -1.000568
2010-04-12 07:56:55 51°13.673 2°55.908 16.2477 0.035828 0.20349 -1.000568
2010-04-12 07:57:00 51°13.674 2°55.901 16.2498 0.035828 0.20349 -1.000568
2010-04-12 07:57:05 51°13.675 2°55.894 16.2494 0.035828 0.20349 -1.000568
2010-04-12 07:57:10 51°13.677 2°55.887 16.2484 0.035828 0.20349 -1.000568
2010-04-12 07:57:15 51°13.678 2°55.88 16.2512 0.035828 0.203494 -1.035392
2010-04-12 07:57:20 51°13.679 2°55.872 16.2518 0.035828 0.203494 -1.035392
2010-04-12 07:57:25 51°13.68 2°55.865 16.246 0.035828 0.203494 -1.000568
2010-04-12 07:57:30 51°13.681 2°55.857 16.2471 0.035828 0.203494 -1.070216
2010-04-12 07:57:35 51°13.682 2°55.849 16.2629 0.035828 0.203497 -1.000568
2010-04-12 07:57:40 51°13.683 2°55.841 16.272 0.035828 0.203497 -1.000568
2010-04-12 07:57:45 51°13.683 2°55.832 16.2604 0.035828 0.203497 -1.000568
2010-04-12 07:57:50 51°13.684 2°55.823 16.2798 0.035828 0.203501 -1.000568
2010-04-12 07:57:55 51°13.685 2°55.815 16.2771 0.035828 0.203501 -1.000568
2010-04-12 07:58:00 51°13.686 2°55.806 16.2666 0.035828 0.203497 -1.035392
2010-04-12 07:58:05 51°13.687 2°55.798 16.2635 0.035828 0.203494 -1.035392
2010-04-12 07:58:10 51°13.688 2°55.789 16.2664 0.035828 0.203494 -1.035392
2010-04-12 07:58:15 51°13.688 2°55.782 16.2629 0.035828 0.203497 -1.035392
2010-04-12 07:58:20 51°13.689 2°55.774 16.2993 0.035828 0.203497 -1.000568
2010-04-12 07:58:25 51°13.69 2°55.767 16.2738 0.035828 0.203501 -1.035392
2010-04-12 07:58:30 51°13.691 2°55.762 16.3009 0.035828 0.203504 -1.035392
2010-04-12 07:58:35 51°13.691 2°55.76 16.3374 0.035828 0.203497 -1.000568
2010-04-12 07:58:40 51°13.691 2°55.76 16.343 0.035828 0.203497 -1.000568
2010-04-12 07:58:45 51°13.69 2°55.761 16.3297 0.035828 0.203501 -1.035392
2010-04-12 07:58:50 51°13.69 2°55.763 16.3188 0.035828 0.203504 -1.000568
2010-04-12 07:58:55 51°13.69 2°55.766 16.3282 0.035828 0.203508 -1.035392
2010-04-12 07:58:59 51°13.691 2°55.768 16.3066 0.035828 0.203514 -1.035392
2010-04-12 07:59:05 51°13.691 2°55.772 16.2615 0.035828 0.203518 -1.000568
2010-04-12 07:59:10 51°13.692 2°55.775 16.1491 0.035828 0.203518 -1.000568
2010-04-12 07:59:14 51°13.692 2°55.777 16.1007 0.035828 0.203518 -1.035392
2010-04-12 07:59:20 51°13.692 2°55.778 16.1836 0.035828 0.203521 -1.035392
2010-04-12 07:59:25 51°13.691 2°55.778 16.1047 0.035828 0.203525 -1.035392
2010-04-12 07:59:30 51°13.691 2°55.776 16.2079 0.035828 0.203521 -1.000568
2010-04-12 07:59:35 51°13.689 2°55.774 16.2535 0.035828 0.203521 -1.035392
2010-04-12 07:59:40 51°13.688 2°55.771 16.2405 0.035828 0.203521 -1.035392
2010-04-12 07:59:45 51°13.687 2°55.768 16.2295 0.035828 0.203518 -1.035392
2010-04-12 07:59:50 51°13.686 2°55.765 16.2278 0.035828 0.203514 -1.035392
2010-04-12 07:59:55 51°13.685 2°55.763 16.2587 0.035828 0.203514 -1.000568
2010-04-12 08:00:00 51°13.684 2°55.76 16.2536 0.035828 0.203518 -1.000568
2010-04-12 08:00:05 51°13.684 2°55.76 16.2912 0.035828 0.203518 -1.035392
2010-04-12 08:00:10 51°13.685 2°55.761 16.2449 0.035828 0.203518 -1.035392
2010-04-12 08:00:15 51°13.686 2°55.763 16.2856 0.035828 0.203518 -1.000568
2010-04-12 08:00:20 51°13.687 2°55.764 16.2776 0.035828 0.203528 -1.000568
2010-04-12 08:00:25 51°13.689 2°55.767 16.2756 0.035828 0.203528 -1.000568
2010-04-12 08:00:30 51°13.692 2°55.77 16.2466 0.035828 0.203528 -1.035392
2010-04-12 08:00:35 51°13.695 2°55.772 16.2435 0.035828 0.203525 -1.000568
2010-04-12 08:00:40 51°13.698 2°55.774 16.1348 0.035828 0.203525 -1.000568
2010-04-12 08:00:45 51°13.7 2°55.775 16.0406 0.035828 0.203528 -1.000568
2010-04-12 08:00:50 51°13.702 2°55.775 16.0625 0.035828 0.203525 -1.035392
2010-04-12 08:00:55 51°13.702 2°55.775 16.1321 0.035828 0.203521 -1.000568
2010-04-12 08:01:00 51°13.702 2°55.775 15.9731 0.035828 0.203525 -1.035392
2010-04-12 08:01:05 51°13.701 2°55.775 16.1111 0.035828 0.203525 -1.035392
2010-04-12 08:01:10 51°13.7 2°55.774 16.128 0.035828 0.203525 -1.035392
2010-04-12 08:01:15 51°13.698 2°55.774 16.1619 0.035828 0.203528 -1.035392
2010-04-12 08:01:20 51°13.697 2°55.774 16.1687 0.035828 0.203528 -1.035392
2010-04-12 08:01:25 51°13.696 2°55.773 16.1965 0.035828 0.203535 -1.000568
2010-04-12 08:01:30 51°13.696 2°55.773 16.2134 0.035828 0.203531 -1.035392
2010-04-12 08:01:35 51°13.697 2°55.771 16.2091 0.035828 0.203535 -1.035392
2010-04-12 08:01:40 51°13.699 2°55.77 16.2111 0.035828 0.203535 -1.035392
2010-04-12 08:01:45 51°13.701 2°55.767 16.2136 0.035828 0.203535 -1.000568
2010-04-12 08:01:50 51°13.704 2°55.764 16.2086 0.035828 0.203548 -1.035392
2010-04-12 08:01:55 51°13.706 2°55.761 16.196 0.035828 0.203555 -1.000568
2010-04-12 08:02:00 51°13.709 2°55.756 16.2006 0.035828 0.203555 -1.000568
2010-04-12 08:02:05 51°13.713 2°55.75 16.1659 0.035828 0.203548 -1.000568
2010-04-12 08:02:10 51°13.717 2°55.744 16.1261 0.035828 0.203548 -1.000568
2010-04-12 08:02:15 51°13.721 2°55.737 16.098 0.035828 0.203538 -1.000568
2010-04-12 08:02:20 51°13.726 2°55.73 16.0574 0.035828 0.203528 -1.000568
2010-04-12 08:02:25 51°13.731 2°55.723 16.062 0.035828 0.203525 -1.000568
2010-04-12 08:02:30 51°13.737 2°55.716 16.0786 0.035828 0.203518 -1.035392
2010-04-12 08:02:35 51°13.743 2°55.709 16.073 0.035828 0.203521 -1.000568
2010-04-12 08:02:40 51°13.75 2°55.701 16.0976 0.035828 0.203521 -1.000568
2010-04-12 08:02:45 51°13.757 2°55.694 16.1017 0.035828 0.203525 -1.000568
2010-04-12 08:02:50 51°13.764 2°55.686 16.1099 0.035828 0.203542 -1.035392
2010-04-12 08:02:55 51°13.772 2°55.679 16.1122 0.035828 0.203552 -1.000568
2010-04-12 08:03:00 51°13.779 2°55.671 16.1132 0.035828 0.203559 -0.965744
2010-04-12 08:03:05 51°13.788 2°55.664 16.0669 0.035828 0.203562 -1.000568
2010-04-12 08:03:10 51°13.796 2°55.657 16.1025 0.035828 0.203562 -1.000568
2010-04-12 08:03:15 51°13.805 2°55.649 16.0812 0.035828 0.203565 -1.035392
2010-04-12 08:03:20 51°13.813 2°55.642 16.0831 0.035828 0.203565 -1.035392
2010-04-12 08:03:25 51°13.822 2°55.634 16.0683 0.035828 0.203565 -1.035392
2010-04-12 08:03:30 51°13.831 2°55.627 16.0639 0.035828 0.203565 -1.035392
2010-04-12 08:03:35 51°13.84 2°55.619 16.029 0.035828 0.203565 -1.035392
2010-04-12 08:03:40 51°13.85 2°55.612 16.0121 0.035828 0.203565 -1.035392
2010-04-12 08:03:45 51°13.859 2°55.604 16.0309 0.035828 0.203569 -1.035392
2010-04-12 08:03:50 51°13.869 2°55.597 16.0362 0.035828 0.203572 -1.000568
2010-04-12 08:03:55 51°13.879 2°55.589 16.0788 0.035828 0.203572 -1.000568
2010-04-12 08:04:00 51°13.889 2°55.582 16.053 0.035828 0.203576 -1.000568
2010-04-12 08:04:05 51°13.899 2°55.574 16.0687 0.035828 0.203572 -1.035392
2010-04-12 08:04:10 51°13.91 2°55.567 16.1059 0.035828 0.203572 -1.035392
2010-04-12 08:04:15 51°13.921 2°55.559 16.1035 0.035828 0.203572 -1.035392
2010-04-12 08:04:20 51°13.932 2°55.551 16.0797 0.035828 0.203572 -0.965744
2010-04-12 08:04:25 51°13.943 2°55.543 16.0427 0.035828 0.203576 -1.000568
2010-04-12 08:04:30 51°13.954 2°55.535 16.0905 0.035828 0.203576 -1.035392
2010-04-12 08:04:35 51°13.966 2°55.526 16.0506 0.035828 0.203582 -1.000568
2010-04-12 08:04:40 51°13.977 2°55.518 16.0726 0.035828 0.203582 -1.000568
2010-04-12 08:04:45 51°13.989 2°55.509 15.9689 0.035828 0.203589 -1.000568
2010-04-12 08:04:50 51°14.001 2°55.5 15.9372 0.035828 0.203596 -1.035392
2010-04-12 08:04:55 51°14.013 2°55.492 15.9417 0.035828 0.203596 -1.000568
2010-04-12 08:05:00 51°14.025 2°55.484 15.9504 0.035828 0.203599 -1.000568
2010-04-12 08:05:05 51°14.037 2°55.475 15.9983 0.035828 0.203596 -1.000568
2010-04-12 08:05:10 51°14.05 2°55.466 16.0438 0.035828 0.203596 -1.000568
2010-04-12 08:05:15 51°14.062 2°55.458 15.9079 0.035828 0.203599 -1.000568
2010-04-12 08:05:20 51°14.075 2°55.448 15.987 0.035828 0.203606 -1.035392
2010-04-12 08:05:25 51°14.087 2°55.44 16.0205 0.035828 0.203606 -1.000568
2010-04-12 08:05:30 51°14.1 2°55.43 15.9486 0.035828 0.203616 -1.000568
2010-04-12 08:05:35 51°14.113 2°55.422 15.9699 0.035828 0.20362 -1.000568
2010-04-12 08:05:40 51°14.126 2°55.412 16.0301 0.035828 0.20362 -1.000568
2010-04-12 08:05:45 51°14.139 2°55.403 16.0222 0.035828 0.203623 -1.000568
2010-04-12 08:05:50 51°14.153 2°55.394 15.9994 0.035828 0.203623 -1.000568
2010-04-12 08:05:55 51°14.166 2°55.385 16.0168 0.035828 0.203627 -1.035392
2010-04-12 08:06:00 51°14.18 2°55.375 16.0204 0.035828 0.203627 -1.035392
2010-04-12 08:06:05 51°14.194 2°55.365 16.0377 0.035828 0.20363 -1.000568
2010-04-12 08:06:10 51°14.208 2°55.355 16.0031 0.035828 0.20363 -1.000568
2010-04-12 08:06:15 51°14.221 2°55.344 16.0146 0.035828 0.20364 -1.035392
2010-04-12 08:06:19 51°14.232 2°55.334 16.0443 0.035828 0.203644 -1.035392
2010-04-12 08:06:24 51°14.246 2°55.322 15.8808 0.035828 0.203651 -1.000568
2010-04-12 08:06:29 51°14.259 2°55.309 15.9291 0.035828 0.203654 -1.000568
2010-04-12 08:06:34 51°14.272 2°55.295 15.8836 0.035828 0.203657 -1.035392
2010-04-12 08:06:39 51°14.286 2°55.28 15.9007 0.035828 0.203657 -1.035392
2010-04-12 08:06:44 51°14.3 2°55.265 15.8337 0.035828 0.203661 -1.000568
2010-04-12 08:06:49 51°14.314 2°55.25 15.9012 0.035828 0.203661 -1.000568
2010-04-12 08:06:55 51°14.331 2°55.23 15.8285 0.035828 0.203661 -1.000568
2010-04-12 08:07:00 51°14.345 2°55.213 15.7516 0.035828 0.203668 -1.000568
2010-04-12 08:07:05 51°14.36 2°55.197 15.821 0.035828 0.203671 -1.000568
2010-04-12 08:07:10 51°14.374 2°55.181 15.8123 0.035828 0.203671 -1.000568
2010-04-12 08:07:15 51°14.389 2°55.164 15.7455 0.035828 0.203664 -1.035392
2010-04-12 08:07:19 51°14.401 2°55.151 15.8186 0.035828 0.203671 -1.000568
2010-04-12 08:07:25 51°14.418 2°55.131 15.8635 0.035724 0.203073 -1.000568
2010-04-12 08:07:30 51°14.434 2°55.115 15.8118 0.035828 0.203674 -1.000568
2010-04-12 08:07:34 51°14.446 2°55.101 15.8208 0.035828 0.203681 -1.000568
2010-04-12 08:07:39 51°14.46 2°55.085 15.8741 0.035828 0.203681 -1.000568
2010-04-12 08:07:45 51°14.478 2°55.065 15.8621 0.035828 0.203688 -1.000568
2010-04-12 08:07:50 51°14.493 2°55.047 15.856 0.035828 0.203691 -1.000568
2010-04-12 08:07:55 51°14.508 2°55.029 15.8309 0.035828 0.203702 -1.035392
2010-04-12 08:07:59 51°14.519 2°55.013 15.8247 0.035828 0.203715 -1.000568
2010-04-12 08:08:04 51°14.532 2°54.993 15.7981 0.035828 0.203729 -1.000568
2010-04-12 08:08:09 51°14.546 2°54.973 15.6626 0.035828 0.203729 -1.000568
2010-04-12 08:08:14 51°14.56 2°54.954 15.8038 0.035828 0.203729 -1.035392
2010-04-12 08:08:19 51°14.574 2°54.934 15.7719 0.035828 0.203729 -0.965744
2010-04-12 08:08:24 51°14.588 2°54.915 15.7847 0.035828 0.203732 -1.000568
2010-04-12 08:08:29 51°14.602 2°54.896 15.7812 0.035828 0.203736 -1.035392
2010-04-12 08:08:34 51°14.616 2°54.877 15.7643 0.035828 0.203732 -1.000568
2010-04-12 08:08:39 51°14.63 2°54.858 15.7934 0.035828 0.203732 -1.000568
2010-04-12 08:08:43 51°14.641 2°54.843 15.8296 0.035828 0.203736 -1.000568
2010-04-12 08:08:48 51°14.655 2°54.823 15.7292 0.035828 0.203736 -1.000568
2010-04-12 08:08:53 51°14.669 2°54.804 15.7201 0.035828 0.203743 -1.035392
2010-04-12 08:08:58 51°14.683 2°54.786 15.7202 0.035828 0.203749 -1.035392
2010-04-12 08:09:03 51°14.697 2°54.768 15.7201 0.035828 0.203753 -1.035392
2010-04-12 08:09:07 51°14.709 2°54.753 15.7316 0.035828 0.203753 -1.035392
2010-04-12 08:09:12 51°14.723 2°54.735 15.762 0.035828 0.20376 -1.000568
2010-04-12 08:09:17 51°14.737 2°54.718 15.7113 0.035828 0.20377 -1.000568
2010-04-12 08:09:22 51°14.752 2°54.702 15.7745 0.035828 0.203777 -1.000568
2010-04-12 08:09:27 51°14.767 2°54.687 15.7829 0.035828 0.20378 -1.070216
2010-04-12 08:09:31 51°14.779 2°54.674 15.7086 0.035828 0.203797 -1.035392
2010-04-12 08:09:36 51°14.794 2°54.658 15.7837 0.035828 0.203797 -1.035392
2010-04-12 08:09:41 51°14.809 2°54.642 15.7001 0.035828 0.203818 -1.035392
2010-04-12 08:09:47 51°14.827 2°54.623 15.7967 0.035724 0.20326 -0.965744
2010-04-12 08:09:51 51°14.839 2°54.611 15.7716 0.035828 0.203886 -1.070216
2010-04-12 08:09:56 51°14.854 2°54.595 15.8048 0.035828 0.2039 -1.035392
2010-04-12 08:10:02 51°14.872 2°54.574 15.7562 0.035828 0.203907 -1.035392
2010-04-12 08:10:07 51°14.886 2°54.555 15.7308 0.035828 0.203907 -1.035392
2010-04-12 08:10:11 51°14.898 2°54.54 15.7269 0.035724 0.203298 -1.000568
2010-04-12 08:10:16 51°14.912 2°54.521 15.7531 0.035724 0.203287 -1.000568
2010-04-12 08:10:22 51°14.928 2°54.497 15.7674 0.035724 0.203277 -1.000568
2010-04-12 08:10:26 51°14.939 2°54.482 15.7353 0.035724 0.20327 -1.035392
2010-04-12 08:10:31 51°14.953 2°54.463 15.672 0.035724 0.203264 -1.000568
2010-04-12 08:10:36 51°14.967 2°54.444 15.7164 0.035724 0.203264 -1.000568
2010-04-12 08:10:42 51°14.983 2°54.421 15.7466 0.035724 0.203267 -1.000568
2010-04-12 08:10:46 51°14.994 2°54.407 15.6677 0.035724 0.20326 -1.035392
2010-04-12 08:10:51 51°15.008 2°54.389 15.7156 0.035828 0.203872 -1.000568
2010-04-12 08:10:56 51°15.022 2°54.372 15.6887 0.035724 0.203281 -1.000568
2010-04-12 08:11:02 51°15.039 2°54.351 15.7068 0.035724 0.203284 -1.000568
2010-04-12 08:11:06 51°15.05 2°54.336 15.724 0.035724 0.203284 -1.000568
2010-04-12 08:11:11 51°15.064 2°54.319 15.7506 0.035724 0.203291 -1.035392
2010-04-12 08:11:16 51°15.079 2°54.303 15.7622 0.035724 0.203294 -1.000568
2010-04-12 08:11:22 51°15.096 2°54.282 15.7501 0.035724 0.203298 -1.035392
2010-04-12 08:11:26 51°15.108 2°54.269 15.7104 0.035724 0.203301 -1.035392
2010-04-12 08:11:31 51°15.122 2°54.251 15.7245 0.035724 0.203311 -1.035392
2010-04-12 08:11:36 51°15.136 2°54.234 15.7062 0.035724 0.203311 -1.035392
2010-04-12 08:11:42 51°15.153 2°54.213 15.7267 0.035724 0.203311 -1.000568
2010-04-12 08:11:47 51°15.167 2°54.195 15.7169 0.035724 0.203321 -1.000568
2010-04-12 08:11:51 51°15.179 2°54.181 15.7416 0.035724 0.203325 -1.070216
2010-04-12 08:11:56 51°15.193 2°54.163 15.7025 0.035724 0.203335 -1.035392
2010-04-12 08:12:01 51°15.207 2°54.145 15.7015 0.035724 0.203345 -1.035392
2010-04-12 08:12:06 51°15.221 2°54.127 15.7342 0.035724 0.203345 -1.035392
2010-04-12 08:12:11 51°15.235 2°54.11 15.7174 0.035724 0.203352 -1.035392
2010-04-12 08:12:16 51°15.249 2°54.091 15.7355 0.035724 0.203356 -0.965744
2010-04-12 08:12:22 51°15.266 2°54.07 15.6946 0.035724 0.203362 -1.000568
2010-04-12 08:12:26 51°15.277 2°54.056 15.7166 0.035724 0.203366 -1.000568
2010-04-12 08:12:31 51°15.291 2°54.038 15.7046 0.035724 0.203376 -1.070216
2010-04-12 08:12:36 51°15.306 2°54.02 15.7267 0.035724 0.203376 -1.070216
2010-04-12 08:12:42 51°15.322 2°53.998 15.7102 0.035724 0.203376 -1.035392
2010-04-12 08:12:46 51°15.334 2°53.983 15.7031 0.035724 0.203386 -1.000568
2010-04-12 08:12:51 51°15.348 2°53.965 15.7304 0.035724 0.2034 -1.000568
2010-04-12 08:12:56 51°15.362 2°53.947 15.7203 0.035724 0.20341 -1.035392
2010-04-12 08:13:02 51°15.378 2°53.926 15.736 0.035724 0.20342 -1.000568
2010-04-12 08:13:06 51°15.39 2°53.911 15.7043 0.035724 0.20342 -1.000568
2010-04-12 08:13:11 51°15.404 2°53.894 15.7122 0.035724 0.20342 -1.000568
2010-04-12 08:13:17 51°15.42 2°53.871 15.7354 0.035724 0.203424 -0.965744
2010-04-12 08:13:22 51°15.434 2°53.853 15.6932 0.035724 0.203417 -1.035392
2010-04-12 08:13:26 51°15.445 2°53.838 15.7362 0.035724 0.203434 -1.035392
2010-04-12 08:13:31 51°15.459 2°53.82 15.6957 0.035724 0.203444 -1.035392
2010-04-12 08:13:36 51°15.473 2°53.801 15.704 0.035724 0.203444 -1.035392
2010-04-12 08:13:42 51°15.49 2°53.78 15.7042 0.035724 0.203455 -1.000568
2010-04-12 08:13:46 51°15.501 2°53.766 15.7356 0.035724 0.203461 -1.035392
2010-04-12 08:13:51 51°15.516 2°53.748 15.7122 0.035724 0.203461 -1.035392
2010-04-12 08:13:56 51°15.529 2°53.731 15.7373 0.035724 0.203465 -0.965744
2010-04-12 08:14:02 51°15.546 2°53.709 15.7094 0.035724 0.203465 -1.035392
2010-04-12 08:14:06 51°15.558 2°53.696 15.701 0.035724 0.203465 -1.035392
2010-04-12 08:14:11 51°15.572 2°53.679 15.7363 0.035724 0.203461 -1.000568
2010-04-12 08:14:15 51°15.584 2°53.666 15.6619 0.035724 0.203465 -1.035392
2010-04-12 08:14:22 51°15.604 2°53.642 16.3112 0.035724 0.203472 -1.035392
2010-04-12 08:14:26 51°15.616 2°53.63 16.1059 0.035724 0.203478 -1.000568
2010-04-12 08:14:31 51°15.631 2°53.614 15.8367 0.035724 0.203489 -0.965744
2010-04-12 08:14:36 51°15.645 2°53.599 15.7383 0.035724 0.203489 -0.965744
2010-04-12 08:14:42 51°15.663 2°53.58 15.776 0.035724 0.203506 -1.000568
2010-04-12 08:14:46 51°15.675 2°53.568 15.7704 0.035724 0.203509 -1.000568
2010-04-12 08:14:51 51°15.69 2°53.553 15.7997 0.035724 0.203509 -1.000568
2010-04-12 08:14:56 51°15.705 2°53.539 15.7939 0.035724 0.203516 -1.035392
2010-04-12 08:15:02 51°15.723 2°53.521 15.7941 0.035724 0.203523 -1.035392
2010-04-12 08:15:06 51°15.735 2°53.51 15.8266 0.035724 0.203523 -1.035392
2010-04-12 08:15:11 51°15.75 2°53.496 15.8196 0.035724 0.203533 -1.000568
2010-04-12 08:15:17 51°15.768 2°53.478 15.8623 0.035724 0.20354 -1.035392
2010-04-12 08:15:22 51°15.783 2°53.464 15.8539 0.035724 0.20355 -1.035392
2010-04-12 08:15:26 51°15.796 2°53.453 15.8459 0.035724 0.203567 -1.000568
2010-04-12 08:15:31 51°15.811 2°53.439 15.865 0.035724 0.203578 -1.000568
2010-04-12 08:15:36 51°15.826 2°53.426 15.858 0.035724 0.203578 -1.000568
2010-04-12 08:15:42 51°15.845 2°53.41 15.8408 0.035724 0.203581 -1.000568
2010-04-12 08:15:46 51°15.857 2°53.399 15.8682 0.035724 0.203598 -1.000568
2010-04-12 08:15:51 51°15.872 2°53.385 15.8575 0.035724 0.203612 -1.035392
2010-04-12 08:15:56 51°15.888 2°53.371 15.8646 0.035724 0.203622 -1.000568
2010-04-12 08:16:02 51°15.906 2°53.355 15.8704 0.035724 0.203622 -1.035392
2010-04-12 08:16:06 51°15.919 2°53.344 15.8519 0.035724 0.203622 -1.035392
2010-04-12 08:16:11 51°15.934 2°53.331 15.9081 0.035724 0.203619 -1.035392
2010-04-12 08:16:15 51°15.946 2°53.32 15.8754 0.03562 0.203026 -1.035392
2010-04-12 08:16:22 51°15.968 2°53.301 15.9238 0.035724 0.203629 -1.000568
2010-04-12 08:16:26 51°15.98 2°53.29 15.8959 0.035724 0.203629 -1.000568
2010-04-12 08:16:31 51°15.996 2°53.277 15.9221 0.035724 0.203636 -1.000568
2010-04-12 08:16:36 51°16.011 2°53.264 15.89 0.035724 0.203636 -1.000568
2010-04-12 08:16:42 51°16.03 2°53.249 15.9396 0.035724 0.203639 -1.000568
2010-04-12 08:16:46 51°16.042 2°53.238 15.8994 0.035724 0.203649 -1.000568
2010-04-12 08:16:51 51°16.058 2°53.226 15.9359 0.035724 0.203649 -1.000568
2010-04-12 08:16:56 51°16.073 2°53.213 15.9091 0.035724 0.203663 -1.000568
2010-04-12 08:17:02 51°16.092 2°53.198 15.9439 0.035724 0.20367 -1.000568
2010-04-12 08:17:06 51°16.104 2°53.187 15.9226 0.035724 0.20367 -1.000568
2010-04-12 08:17:11 51°16.12 2°53.175 15.9248 0.03562 0.203084 -1.035392
2010-04-12 08:17:16 51°16.135 2°53.161 15.9367 0.035724 0.20369 -1.000568
2010-04-12 08:17:22 51°16.154 2°53.146 15.9285 0.03562 0.203094 -1.035392
2010-04-12 08:17:26 51°16.167 2°53.136 15.9596 0.035724 0.203697 -1.035392
2010-04-12 08:17:31 51°16.182 2°53.123 15.9558 0.035724 0.203697 -1.000568
2010-04-12 08:17:36 51°16.198 2°53.111 15.9355 0.035724 0.203697 -1.000568
2010-04-12 08:17:41 51°16.215 2°53.1 15.965 0.035724 0.203704 -1.000568
2010-04-12 08:17:46 51°16.23 2°53.088 15.9581 0.03562 0.203114 -0.965744
2010-04-12 08:17:51 51°16.247 2°53.079 15.9552 0.03562 0.203128 -1.000568
2010-04-12 08:17:56 51°16.263 2°53.068 15.9619 0.035724 0.203749 -1.000568
2010-04-12 08:18:02 51°16.282 2°53.056 15.9879 0.035724 0.203759 -1.000568
2010-04-12 08:18:06 51°16.295 2°53.048 15.9812 0.035724 0.203759 -1.000568
2010-04-12 08:18:11 51°16.312 2°53.041 15.9712 0.035724 0.203786 -1.035392
2010-04-12 08:18:16 51°16.328 2°53.033 15.9687 0.035724 0.2038 -1.035392
2010-04-12 08:18:22 51°16.348 2°53.024 15.9556 0.03562 0.203193 -1.035392
2010-04-12 08:18:26 51°16.362 2°53.018 15.9863 0.03562 0.203193 -1.000568
2010-04-12 08:18:31 51°16.378 2°53.011 15.9776 0.035724 0.203786 -1.035392
2010-04-12 08:18:36 51°16.395 2°53.004 15.9893 0.035724 0.203786 -1.035392
2010-04-12 08:18:42 51°16.415 2°52.996 15.9901 0.035724 0.20379 -1.035392
2010-04-12 08:18:46 51°16.429 2°52.991 15.9669 0.035724 0.20379 -1.000568
2010-04-12 08:18:51 51°16.445 2°52.984 15.9966 0.03562 0.203207 -1.035392
2010-04-12 08:18:56 51°16.462 2°52.977 15.9908 0.035724 0.203814 -1.035392
2010-04-12 08:19:02 51°16.482 2°52.968 15.9893 0.035724 0.20381 -1.000568
2010-04-12 08:19:06 51°16.495 2°52.962 15.9826 0.035724 0.20381 -1.000568
2010-04-12 08:19:11 51°16.512 2°52.955 16.0099 0.035724 0.203824 -1.035392
2010-04-12 08:19:17 51°16.532 2°52.946 15.9919 0.03562 0.203237 -1.035392
2010-04-12 08:19:22 51°16.548 2°52.939 15.9883 0.03562 0.203234 -1.035392
2010-04-12 08:19:26 51°16.562 2°52.933 15.9978 0.03562 0.203248 -1.000568
2010-04-12 08:19:31 51°16.579 2°52.926 16.0096 0.03562 0.203258 -1.000568
2010-04-12 08:19:36 51°16.595 2°52.918 16.0041 0.03562 0.203258 -1.000568
2010-04-12 08:19:42 51°16.615 2°52.909 16.0102 0.03562 0.203268 -1.035392
2010-04-12 08:19:46 51°16.629 2°52.904 15.9954 0.03562 0.203268 -1.000568
2010-04-12 08:19:51 51°16.646 2°52.897 16.0085 0.03562 0.203275 -1.000568
2010-04-12 08:19:56 51°16.662 2°52.889 15.9951 0.03562 0.203279 -1.000568
2010-04-12 08:20:02 51°16.683 2°52.88 16.0059 0.03562 0.203289 -1.000568
2010-04-12 08:20:06 51°16.696 2°52.874 16.0046 0.03562 0.203289 -1.000568
2010-04-12 08:20:11 51°16.712 2°52.866 16.0152 0.03562 0.203302 -1.000568
2010-04-12 08:20:15 51°16.725 2°52.859 16.0117 0.03562 0.203309 -1.000568
2010-04-12 08:20:22 51°16.749 2°52.848 16.0062 0.03562 0.203309 -0.965744
2010-04-12 08:20:26 51°16.762 2°52.842 16.0208 0.03562 0.203313 -1.000568
2010-04-12 08:20:31 51°16.778 2°52.834 16.0215 0.03562 0.203313 -1.035392
2010-04-12 08:20:36 51°16.794 2°52.826 16.0117 0.03562 0.203313 -1.035392
2010-04-12 08:20:42 51°16.814 2°52.817 16.037 0.03562 0.203316 -1.035392
2010-04-12 08:20:46 51°16.827 2°52.81 16.0338 0.03562 0.20332 -0.965744
2010-04-12 08:20:51 51°16.844 2°52.803 16.033 0.03562 0.20332 -1.000568
2010-04-12 08:20:56 51°16.86 2°52.794 16.0378 0.03562 0.203326 -1.000568
2010-04-12 08:21:02 51°16.88 2°52.785 16.0225 0.03562 0.203326 -1.000568
2010-04-12 08:21:07 51°16.896 2°52.777 16.0443 0.03562 0.203333 -1.035392
2010-04-12 08:21:11 51°16.909 2°52.771 16.0336 0.03562 0.203354 -0.965744
2010-04-12 08:21:17 51°16.928 2°52.761 16.0326 0.03562 0.203357 -1.035392
2010-04-12 08:21:22 51°16.945 2°52.753 16.033 0.03562 0.203371 -1.035392
2010-04-12 08:21:26 51°16.958 2°52.746 16.0333 0.03562 0.203378 -1.035392
2010-04-12 08:21:31 51°16.974 2°52.738 16.0428 0.03562 0.203378 -1.000568
2010-04-12 08:21:36 51°16.991 2°52.73 16.0438 0.03562 0.203378 -1.000568
2010-04-12 08:21:42 51°17.011 2°52.72 16.0575 0.03562 0.203385 -1.035392
2010-04-12 08:21:46 51°17.024 2°52.714 16.0389 0.03562 0.203395 -0.965744
2010-04-12 08:21:51 51°17.04 2°52.706 16.0531 0.03562 0.203395 -1.035392
2010-04-12 08:21:56 51°17.057 2°52.697 16.0443 0.03562 0.203412 -0.965744
2010-04-12 08:22:02 51°17.076 2°52.687 16.0455 0.03562 0.203415 -1.000568
2010-04-12 08:22:06 51°17.089 2°52.682 16.0484 0.03562 0.203415 -1.000568
2010-04-12 08:22:11 51°17.106 2°52.673 16.0569 0.03562 0.203419 -1.000568
2010-04-12 08:22:17 51°17.125 2°52.663 16.0593 0.03562 0.203429 -1.000568
2010-04-12 08:22:21 51°17.138 2°52.656 16.0535 0.03562 0.20345 -1.000568
2010-04-12 08:22:26 51°17.155 2°52.649 16.0553 0.03562 0.203457 -0.965744
2010-04-12 08:22:31 51°17.171 2°52.64 16.0698 0.03562 0.203484 -1.000568
2010-04-12 08:22:36 51°17.187 2°52.632 16.0646 0.03562 0.203484 -1.000568
2010-04-12 08:22:42 51°17.207 2°52.622 16.0679 0.03562 0.203494 -0.965744
2010-04-12 08:22:47 51°17.223 2°52.614 16.0664 0.03562 0.203501 -1.000568
2010-04-12 08:22:51 51°17.237 2°52.607 16.0769 0.03562 0.203511 -1.000568
2010-04-12 08:22:56 51°17.252 2°52.599 16.0693 0.03562 0.203525 -1.000568
2010-04-12 08:23:02 51°17.272 2°52.59 16.0735 0.03562 0.203542 -1.000568
2010-04-12 08:23:06 51°17.285 2°52.583 16.0783 0.03562 0.203542 -1.000568
2010-04-12 08:23:11 51°17.302 2°52.576 16.0905 0.03562 0.203549 -0.965744
2010-04-12 08:23:16 51°17.318 2°52.568 16.0884 0.03562 0.203553 -0.965744
2010-04-12 08:23:22 51°17.338 2°52.56 16.0882 0.03562 0.203549 -1.035392
2010-04-12 08:23:26 51°17.351 2°52.555 16.0858 0.03562 0.203566 -1.000568
2010-04-12 08:23:31 51°17.368 2°52.551 16.0869 0.03562 0.20357 -1.000568
2010-04-12 08:23:36 51°17.385 2°52.547 16.0807 0.03562 0.20357 -1.000568
2010-04-12 08:23:42 51°17.405 2°52.543 16.0847 0.03562 0.20358 -0.965744
2010-04-12 08:23:46 51°17.419 2°52.541 16.0832 0.03562 0.20358 -1.000568
2010-04-12 08:23:51 51°17.436 2°52.538 16.0854 0.03562 0.203577 -1.000568
2010-04-12 08:23:56 51°17.453 2°52.536 16.0968 0.03562 0.20358 -1.000568
2010-04-12 08:24:02 51°17.473 2°52.534 16.0872 0.03562 0.203584 -0.965744
2010-04-12 08:24:06 51°17.487 2°52.533 16.093 0.03562 0.203584 -0.965744
2010-04-12 08:24:11 51°17.504 2°52.532 16.0946 0.03562 0.203594 -1.000568
2010-04-12 08:24:17 51°17.524 2°52.53 16.099 0.03562 0.203611 -0.965744
2010-04-12 08:24:22 51°17.541 2°52.529 16.0947 0.03562 0.203625 -1.000568
2010-04-12 08:24:26 51°17.555 2°52.529 16.0966 0.03562 0.203635 -1.000568
2010-04-12 08:24:31 51°17.572 2°52.528 16.0964 0.03562 0.203645 -1.000568
2010-04-12 08:24:36 51°17.589 2°52.526 16.1618 0.03562 0.203645 -1.000568
2010-04-12 08:24:42 51°17.609 2°52.525 15.854 0.03562 0.203663 -0.965744
2010-04-12 08:24:46 51°17.623 2°52.524 15.8177 0.03562 0.203666 -0.896096
2010-04-12 08:24:51 51°17.64 2°52.523 15.8635 0.03562 0.203676 -0.965744
2010-04-12 08:24:56 51°17.657 2°52.522 15.8988 0.03562 0.20369 -1.000568
2010-04-12 08:25:02 51°17.678 2°52.521 15.9004 0.03562 0.203711 -1.000568
2010-04-12 08:25:06 51°17.691 2°52.521 15.8778 0.03562 0.203711 -1.000568
2010-04-12 08:25:11 51°17.709 2°52.522 15.9397 0.03562 0.203714 -1.000568
2010-04-12 08:25:16 51°17.726 2°52.522 15.8908 0.03562 0.203735 -1.000568
2010-04-12 08:25:22 51°17.746 2°52.524 15.9435 0.035516 0.203133 -1.000568
2010-04-12 08:25:27 51°17.763 2°52.525 15.9023 0.03562 0.203735 -0.965744
2010-04-12 08:25:31 51°17.777 2°52.526 15.9169 0.03562 0.203738 -1.000568
2010-04-12 08:25:36 51°17.793 2°52.529 15.9209 0.03562 0.203738 -1.000568
2010-04-12 08:25:41 51°17.811 2°52.531 15.9278 0.035516 0.203147 -1.000568
2010-04-12 08:25:47 51°17.831 2°52.535 15.9131 0.035516 0.203157 -1.000568
2010-04-12 08:25:51 51°17.844 2°52.537 15.9419 0.03562 0.203769 -0.965744
2010-04-12 08:25:56 51°17.861 2°52.541 15.9032 0.035516 0.203174 -1.000568
2010-04-12 08:26:02 51°17.881 2°52.545 15.9131 0.03562 0.203786 -0.965744
2010-04-12 08:26:06 51°17.895 2°52.548 15.9342 0.03562 0.203786 -0.965744
2010-04-12 08:26:11 51°17.911 2°52.552 15.9188 0.035516 0.203195 -1.000568
2010-04-12 08:26:16 51°17.928 2°52.556 15.9353 0.03562 0.203807 -0.965744
2010-04-12 08:26:22 51°17.948 2°52.561 15.9127 0.035516 0.203205 -1.000568
2010-04-12 08:26:26 51°17.962 2°52.564 15.9429 0.035516 0.203222 -1.000568
2010-04-12 08:26:31 51°17.978 2°52.567 15.9404 0.035516 0.203232 -1.000568
2010-04-12 08:26:36 51°17.995 2°52.572 16.0356 0.035516 0.203232 -1.000568
2010-04-12 08:26:42 51°18.015 2°52.579 16.0078 0.035516 0.203229 -0.965744
2010-04-12 08:26:46 51°18.027 2°52.587 15.9533 0.035516 0.203226 -0.965744
2010-04-12 08:26:51 51°18.042 2°52.599 15.9474 0.035516 0.203226 -0.965744
2010-04-12 08:26:56 51°18.057 2°52.61 15.963 0.035516 0.203229 -1.000568
2010-04-12 08:27:01 51°18.071 2°52.624 15.9024 0.035516 0.203236 -1.000568
2010-04-12 08:27:06 51°18.085 2°52.638 16.0141 0.035516 0.203236 -1.000568
2010-04-12 08:27:11 51°18.099 2°52.653 15.9221 0.035516 0.203256 -0.965744
2010-04-12 08:27:15 51°18.11 2°52.665 15.9542 0.035516 0.20325 -1.070216
2010-04-12 08:27:22 51°18.127 2°52.69 15.9438 0.035516 0.203256 -0.965744
2010-04-12 08:27:26 51°18.138 2°52.704 15.9821 0.035516 0.203263 -1.000568
2010-04-12 08:27:31 51°18.149 2°52.724 15.9163 0.035516 0.20326 -0.965744
2010-04-12 08:27:36 51°18.159 2°52.745 15.9747 0.035516 0.20326 -0.965744
2010-04-12 08:27:42 51°18.172 2°52.77 15.9204 0.035516 0.203267 -1.035392
2010-04-12 08:27:46 51°18.178 2°52.789 15.925 0.035516 0.203267 -0.965744
2010-04-12 08:27:51 51°18.188 2°52.811 15.9015 0.035516 0.20328 -0.965744
2010-04-12 08:27:56 51°18.195 2°52.836 15.9233 0.035516 0.203287 -0.965744
2010-04-12 08:28:01 51°18.203 2°52.859 15.9113 0.035516 0.203294 -1.000568
2010-04-12 08:28:07 51°18.212 2°52.889 15.9018 0.035516 0.203294 -1.000568
2010-04-12 08:28:11 51°18.217 2°52.909 15.8834 0.035516 0.203301 -0.965744
2010-04-12 08:28:17 51°18.225 2°52.939 15.9455 0.035516 0.203308 -1.000568
2010-04-12 08:28:22 51°18.231 2°52.965 15.8828 0.035516 0.203311 -1.000568
2010-04-12 08:28:26 51°18.236 2°52.986 15.901 0.035516 0.203318 -0.965744
2010-04-12 08:28:31 51°18.242 2°53.011 15.8984 0.035516 0.203315 -1.000568
2010-04-12 08:28:36 51°18.247 2°53.037 15.8866 0.035516 0.203315 -1.000568
2010-04-12 08:28:42 51°18.256 2°53.067 15.907 0.035516 0.203318 -0.965744
2010-04-12 08:28:46 51°18.26 2°53.088 15.9107 0.035516 0.203318 -1.000568
2010-04-12 08:28:51 51°18.267 2°53.113 15.8636 0.035516 0.203322 -1.000568
2010-04-12 08:28:57 51°18.274 2°53.143 15.93 0.035516 0.203325 -1.000568
2010-04-12 08:29:02 51°18.282 2°53.168 15.891 0.035516 0.203332 -1.000568
2010-04-12 08:29:06 51°18.287 2°53.189 15.9555 0.035516 0.203332 -1.000568
2010-04-12 08:29:11 51°18.294 2°53.213 15.9181 0.035516 0.203342 -1.000568
2010-04-12 08:29:15 51°18.299 2°53.234 15.9487 0.035516 0.203342 -1.000568
2010-04-12 08:29:22 51°18.309 2°53.269 15.8751 0.035516 0.203349 -1.000568
2010-04-12 08:29:26 51°18.314 2°53.289 15.8752 0.035516 0.203353 -0.965744
2010-04-12 08:29:31 51°18.321 2°53.314 15.9063 0.035516 0.203363 -1.000568
2010-04-12 08:29:36 51°18.328 2°53.339 15.8631 0.035516 0.203363 -1.000568
2010-04-12 08:29:42 51°18.336 2°53.369 15.9612 0.035516 0.203356 -0.965744
2010-04-12 08:29:46 51°18.342 2°53.389 15.8787 0.035516 0.203363 -1.035392
2010-04-12 08:29:51 51°18.349 2°53.415 15.9014 0.035516 0.203363 -0.965744
2010-04-12 08:29:56 51°18.356 2°53.44 15.8611 0.035516 0.203363 -1.000568
2010-04-12 08:30:02 51°18.364 2°53.469 15.9001 0.035516 0.203366 -1.000568
2010-04-12 08:30:07 51°18.371 2°53.494 15.9144 0.035516 0.203366 -1.000568
2010-04-12 08:30:11 51°18.377 2°53.514 15.9657 0.035516 0.203373 -1.000568
2010-04-12 08:30:16 51°18.384 2°53.539 15.8995 0.035516 0.203377 -1.000568
2010-04-12 08:30:21 51°18.391 2°53.564 15.9469 0.035516 0.203377 -1.000568
2010-04-12 08:30:26 51°18.398 2°53.589 15.8701 0.035516 0.203384 -1.000568
2010-04-12 08:30:31 51°18.405 2°53.615 15.8921 0.035516 0.20339 -1.000568
2010-04-12 08:30:36 51°18.412 2°53.64 15.9102 0.035516 0.20339 -1.000568
2010-04-12 08:30:41 51°18.419 2°53.665 15.8898 0.035516 0.203394 -1.000568
2010-04-12 08:30:46 51°18.425 2°53.69 15.9443 0.035516 0.203397 -1.000568
2010-04-12 08:30:51 51°18.432 2°53.715 15.9082 0.035516 0.203397 -1.000568
2010-04-12 08:30:56 51°18.439 2°53.741 15.8511 0.035516 0.203404 -0.965744
2010-04-12 08:31:02 51°18.447 2°53.77 15.9337 0.035516 0.203432 -0.965744
2010-04-12 08:31:06 51°18.452 2°53.79 15.9028 0.035516 0.203432 -0.965744
2010-04-12 08:31:11 51°18.459 2°53.815 15.9131 0.035516 0.203435 -0.965744
2010-04-12 08:31:16 51°18.466 2°53.841 15.9139 0.035516 0.203415 -1.000568
2010-04-12 08:31:22 51°18.475 2°53.87 15.9247 0.035516 0.203411 -1.000568
2010-04-12 08:31:26 51°18.48 2°53.891 15.9203 0.035516 0.203404 -1.000568
2010-04-12 08:31:31 51°18.488 2°53.916 15.9411 0.035516 0.203411 -1.000568
2010-04-12 08:31:36 51°18.495 2°53.941 15.886 0.035516 0.203411 -1.000568
2010-04-12 08:31:42 51°18.503 2°53.971 15.9553 0.035516 0.203418 -0.965744
2010-04-12 08:31:46 51°18.51 2°53.991 15.8547 0.035516 0.203432 -1.035392
2010-04-12 08:31:51 51°18.516 2°54.017 15.9461 0.035412 0.202826 -0.965744
2010-04-12 08:31:56 51°18.524 2°54.041 15.8532 0.035516 0.203452 -0.965744
2010-04-12 08:32:01 51°18.529 2°54.067 15.9016 0.035516 0.203452 -0.965744
2010-04-12 08:32:06 51°18.537 2°54.091 15.9196 0.035516 0.203463 -1.035392
2010-04-12 08:32:11 51°18.543 2°54.117 15.8862 0.035412 0.202874 -1.000568
2010-04-12 08:32:17 51°18.552 2°54.147 15.9305 0.035516 0.203497 -0.965744
2010-04-12 08:32:22 51°18.558 2°54.172 15.8758 0.035412 0.202922 -0.965744
2010-04-12 08:32:26 51°18.564 2°54.192 15.917 0.035516 0.203525 -0.965744
2010-04-12 08:32:31 51°18.571 2°54.217 15.8761 0.035412 0.202915 -0.965744
2010-04-12 08:32:36 51°18.578 2°54.242 15.916 0.035412 0.202915 -0.965744
2010-04-12 08:32:42 51°18.586 2°54.272 15.9153 0.035516 0.203521 -1.000568
2010-04-12 08:32:46 51°18.591 2°54.292 15.9254 0.035516 0.203528 -1.000568
2010-04-12 08:32:51 51°18.598 2°54.317 15.9004 0.035516 0.203525 -0.965744
2010-04-12 08:32:56 51°18.604 2°54.342 15.9324 0.035412 0.202922 -0.965744
2010-04-12 08:33:01 51°18.611 2°54.367 15.9159 0.035412 0.202935 -1.000568
2010-04-12 08:33:06 51°18.618 2°54.392 15.9069 0.035412 0.202935 -1.000568
2010-04-12 08:33:11 51°18.625 2°54.418 15.9084 0.035412 0.202942 -0.965744
2010-04-12 08:33:17 51°18.633 2°54.448 15.9408 0.035412 0.202953 -1.000568
2010-04-12 08:33:22 51°18.64 2°54.473 15.9103 0.035412 0.202949 -1.000568
2010-04-12 08:33:26 51°18.645 2°54.493 15.9215 0.035412 0.202946 -0.965744
2010-04-12 08:33:31 51°18.652 2°54.519 15.9006 0.035412 0.202949 -0.965744
2010-04-12 08:33:36 51°18.659 2°54.544 15.9159 0.035412 0.202949 -0.965744
2010-04-12 08:33:42 51°18.666 2°54.574 15.9035 0.035412 0.202956 -1.000568
2010-04-12 08:33:46 51°18.672 2°54.594 15.9109 0.035412 0.202963 -0.965744
2010-04-12 08:33:51 51°18.678 2°54.62 15.9305 0.035412 0.20297 -1.000568
2010-04-12 08:33:56 51°18.686 2°54.644 15.8848 0.035412 0.202987 -0.965744
2010-04-12 08:34:02 51°18.693 2°54.675 15.9793 0.035412 0.202987 -1.000568
2010-04-12 08:34:06 51°18.7 2°54.694 15.9006 0.035412 0.202987 -1.000568
2010-04-12 08:34:11 51°18.706 2°54.72 15.9698 0.035412 0.20298 -1.000568
2010-04-12 08:34:15 51°18.712 2°54.74 15.8806 0.035412 0.202987 -0.965744
2010-04-12 08:34:22 51°18.721 2°54.776 15.9302 0.035412 0.202987 -1.000568
2010-04-12 08:34:26 51°18.728 2°54.795 15.9046 0.035412 0.202997 -1.000568
2010-04-12 08:34:31 51°18.734 2°54.822 15.9073 0.035412 0.202997 -1.000568
2010-04-12 08:34:36 51°18.742 2°54.846 15.8948 0.035412 0.202997 -1.000568
2010-04-12 08:34:42 51°18.75 2°54.876 15.918 0.035412 0.203018 -1.000568
2010-04-12 08:34:46 51°18.756 2°54.896 15.9193 0.035412 0.203025 -1.000568
2010-04-12 08:34:51 51°18.762 2°54.921 15.9381 0.035412 0.203045 -0.965744
2010-04-12 08:34:56 51°18.769 2°54.946 15.9248 0.035412 0.203066 -0.965744
2010-04-12 08:35:02 51°18.777 2°54.977 15.9001 0.035412 0.203066 -0.965744
2010-04-12 08:35:06 51°18.783 2°54.997 15.8893 0.035412 0.203066 -0.965744
2010-04-12 08:35:11 51°18.789 2°55.022 15.8909 0.035412 0.203066 -1.000568
2010-04-12 08:35:17 51°18.798 2°55.052 15.9064 0.035412 0.203059 -0.965744
2010-04-12 08:35:22 51°18.804 2°55.078 15.8983 0.035412 0.203059 -0.93092
2010-04-12 08:35:26 51°18.81 2°55.098 15.853 0.035412 0.203056 -1.000568
2010-04-12 08:35:31 51°18.816 2°55.123 15.8969 0.035412 0.203059 -1.035392
2010-04-12 08:35:36 51°18.823 2°55.148 15.9113 0.035412 0.203059 -1.035392
2010-04-12 08:35:42 51°18.832 2°55.178 15.8974 0.035412 0.203073 -0.965744
2010-04-12 08:35:46 51°18.837 2°55.198 15.895 0.035412 0.20308 -0.965744
2010-04-12 08:35:51 51°18.844 2°55.224 15.8846 0.035412 0.203087 -0.965744
2010-04-12 08:35:56 51°18.85 2°55.249 15.9304 0.035412 0.203083 -1.000568
2010-04-12 08:36:02 51°18.858 2°55.279 15.8445 0.035412 0.203094 -0.965744
2010-04-12 08:36:06 51°18.864 2°55.299 15.9114 0.035412 0.203094 -0.965744
2010-04-12 08:36:11 51°18.871 2°55.324 15.87 0.035412 0.203097 -1.035392
2010-04-12 08:36:16 51°18.877 2°55.349 15.8992 0.035412 0.203114 -0.965744
2010-04-12 08:36:21 51°18.884 2°55.374 15.9391 0.035412 0.203111 -0.965744
2010-04-12 08:36:26 51°18.891 2°55.399 15.9007 0.035412 0.2031 -1.000568
2010-04-12 08:36:31 51°18.899 2°55.424 15.9295 0.035412 0.203094 -1.000568
2010-04-12 08:36:35 51°18.904 2°55.444 15.9234 0.035412 0.203094 -1.000568
2010-04-12 08:36:42 51°18.914 2°55.479 15.8676 0.035412 0.20309 -1.000568
2010-04-12 08:36:46 51°18.919 2°55.499 15.9193 0.035412 0.203094 -0.965744
2010-04-12 08:36:51 51°18.927 2°55.524 15.9127 0.035412 0.2031 -1.000568
2010-04-12 08:36:56 51°18.934 2°55.549 15.8959 0.035412 0.2031 -0.965744
2010-04-12 08:37:02 51°18.942 2°55.579 15.8926 0.035412 0.203107 -1.000568
2010-04-12 08:37:06 51°18.948 2°55.6 15.9347 0.035412 0.203107 -1.000568
2010-04-12 08:37:11 51°18.954 2°55.625 15.9048 0.035412 0.203107 -0.965744
2010-04-12 08:37:16 51°18.961 2°55.65 15.9239 0.035412 0.203118 -1.000568
2010-04-12 08:37:22 51°18.97 2°55.68 15.8838 0.035412 0.203118 -0.965744
2010-04-12 08:37:26 51°18.976 2°55.7 15.9202 0.035412 0.203118 -0.965744
2010-04-12 08:37:31 51°18.983 2°55.726 15.9138 0.035412 0.203121 -1.000568
2010-04-12 08:37:37 51°18.991 2°55.756 15.9251 0.035412 0.203121 -1.000568
2010-04-12 08:37:42 51°18.998 2°55.782 15.8937 0.035412 0.203128 -1.000568
2010-04-12 08:37:46 51°19.004 2°55.801 15.8962 0.035412 0.203138 -1.000568
2010-04-12 08:37:51 51°19.01 2°55.827 15.9319 0.035412 0.203145 -0.965744
2010-04-12 08:37:56 51°19.018 2°55.851 15.8885 0.035412 0.203152 -1.000568
2010-04-12 08:38:02 51°19.026 2°55.882 15.9562 0.035412 0.203155 -1.000568
2010-04-12 08:38:06 51°19.032 2°55.902 15.9435 0.035412 0.203155 -1.000568
2010-04-12 08:38:11 51°19.039 2°55.928 15.9129 0.035412 0.203162 -0.965744
2010-04-12 08:38:16 51°19.046 2°55.953 15.9195 0.035412 0.203159 -1.000568
2010-04-12 08:38:22 51°19.054 2°55.984 15.8772 0.035412 0.203173 -0.965744
2010-04-12 08:38:26 51°19.059 2°56.004 15.8836 0.035308 0.202576 -1.000568
2010-04-12 08:38:31 51°19.066 2°56.029 15.8923 0.035412 0.203183 -0.965744
2010-04-12 08:38:35 51°19.072 2°56.049 15.8754 0.035412 0.203183 -0.965744
2010-04-12 08:38:42 51°19.081 2°56.084 15.9193 0.035412 0.20318 -0.965744
2010-04-12 08:38:46 51°19.087 2°56.104 15.9109 0.035412 0.20318 -1.000568
2010-04-12 08:38:51 51°19.094 2°56.13 15.9149 0.035412 0.203176 -1.000568
2010-04-12 08:38:56 51°19.101 2°56.154 15.9169 0.035412 0.203186 -1.035392
2010-04-12 08:39:02 51°19.109 2°56.185 15.8487 0.035412 0.203186 -1.035392
2010-04-12 08:39:06 51°19.115 2°56.205 15.9153 0.035412 0.203197 -0.965744
2010-04-12 08:39:11 51°19.121 2°56.23 15.9284 0.035412 0.203204 -0.965744
2010-04-12 08:39:16 51°19.129 2°56.255 15.8997 0.035412 0.203214 -1.000568
2010-04-12 08:39:22 51°19.137 2°56.286 15.8624 0.035308 0.202617 -1.000568
2010-04-12 08:39:26 51°19.143 2°56.305 15.9039 0.035412 0.203228 -1.000568
2010-04-12 08:39:31 51°19.15 2°56.331 15.8814 0.035308 0.202638 -0.965744
2010-04-12 08:39:36 51°19.157 2°56.356 15.9054 0.035308 0.202638 -0.965744
2010-04-12 08:39:41 51°19.164 2°56.381 15.7885 0.035412 0.203252 -1.000568
2010-04-12 08:39:46 51°19.171 2°56.406 15.9135 0.035412 0.203245 -0.965744
2010-04-12 08:39:51 51°19.179 2°56.429 15.846 0.035412 0.203255 -0.965744
2010-04-12 08:39:57 51°19.188 2°56.459 15.8673 0.035412 0.203269 -0.965744
2010-04-12 08:40:02 51°19.197 2°56.483 15.8759 0.035412 0.203255 -0.965744
2010-04-12 08:40:06 51°19.203 2°56.502 15.9196 0.035412 0.203255 -0.965744
2010-04-12 08:40:11 51°19.211 2°56.526 15.875 0.035412 0.203252 -0.965744
2010-04-12 08:40:16 51°19.219 2°56.55 15.9321 0.035412 0.203252 -0.965744
2010-04-12 08:40:22 51°19.23 2°56.579 15.9014 0.035412 0.203255 -0.965744
2010-04-12 08:40:26 51°19.236 2°56.598 15.8885 0.035412 0.203252 -0.965744
2010-04-12 08:40:31 51°19.245 2°56.622 15.886 0.035412 0.203249 -0.965744
2010-04-12 08:40:36 51°19.254 2°56.645 15.8755 0.035412 0.203249 -0.965744
2010-04-12 08:40:42 51°19.264 2°56.674 15.8751 0.035412 0.203252 -0.965744
2010-04-12 08:40:46 51°19.271 2°56.693 15.9013 0.035412 0.203259 -0.965744
2010-04-12 08:40:51 51°19.28 2°56.717 15.9131 0.035308 0.202655 -1.000568
2010-04-12 08:40:55 51°19.286 2°56.736 15.9232 0.035412 0.203262 -0.965744
2010-04-12 08:41:02 51°19.298 2°56.77 15.9339 0.035412 0.20328 -0.965744
2010-04-12 08:41:06 51°19.305 2°56.788 15.9019 0.035412 0.20328 -0.965744
2010-04-12 08:41:11 51°19.313 2°56.813 15.9065 0.035308 0.202679 -0.965744
2010-04-12 08:41:16 51°19.322 2°56.836 15.8594 0.035412 0.203311 -0.965744
2010-04-12 08:41:22 51°19.332 2°56.865 15.8829 0.035308 0.202713 -0.965744
2010-04-12 08:41:26 51°19.339 2°56.883 15.9153 0.035412 0.203321 -1.000568
2010-04-12 08:41:31 51°19.347 2°56.908 15.8861 0.035308 0.202717 -0.965744
2010-04-12 08:41:36 51°19.356 2°56.931 15.8959 0.035308 0.202717 -0.965744
2010-04-12 08:41:42 51°19.366 2°56.96 15.908 0.035308 0.202713 -1.000568
2010-04-12 08:41:46 51°19.373 2°56.979 15.9116 0.035308 0.202713 -1.000568
2010-04-12 08:41:51 51°19.382 2°57.003 15.9031 0.035412 0.203314 -0.965744
2010-04-12 08:41:57 51°19.391 2°57.032 15.8664 0.035308 0.20271 -1.000568
2010-04-12 08:42:02 51°19.4 2°57.055 15.8979 0.035412 0.203324 -0.965744
2010-04-12 08:42:06 51°19.406 2°57.075 15.8941 0.035412 0.203324 -0.965744
2010-04-12 08:42:11 51°19.415 2°57.099 15.918 0.035308 0.20272 -0.965744
2010-04-12 08:42:16 51°19.424 2°57.123 15.878 0.035308 0.202724 -1.000568
2010-04-12 08:42:22 51°19.434 2°57.151 15.9152 0.035308 0.202724 -0.965744
2010-04-12 08:42:26 51°19.441 2°57.171 15.9201 0.035412 0.203331 -0.965744
2010-04-12 08:42:31 51°19.45 2°57.194 15.9236 0.035412 0.203331 -0.965744
2010-04-12 08:42:36 51°19.459 2°57.218 15.9086 0.035308 0.202724 -1.000568
2010-04-12 08:42:42 51°19.469 2°57.247 15.9112 0.035308 0.20272 -0.965744
2010-04-12 08:42:46 51°19.476 2°57.267 15.8795 0.035308 0.202727 -0.965744
2010-04-12 08:42:51 51°19.484 2°57.29 15.9117 0.035308 0.20273 -1.000568
2010-04-12 08:42:55 51°19.491 2°57.309 15.9013 0.035308 0.20273 -0.965744
2010-04-12 08:43:02 51°19.503 2°57.343 15.8974 0.035308 0.202737 -1.000568
2010-04-12 08:43:06 51°19.51 2°57.363 15.9008 0.035308 0.202737 -1.000568
2010-04-12 08:43:11 51°19.519 2°57.386 15.8897 0.035308 0.202744 -1.000568
2010-04-12 08:43:16 51°19.527 2°57.41 15.9061 0.035308 0.202744 -0.965744
2010-04-12 08:43:22 51°19.537 2°57.44 15.9479 0.035308 0.202741 -0.965744
2010-04-12 08:43:26 51°19.545 2°57.458 15.8939 0.035308 0.202737 -1.000568
2010-04-12 08:43:31 51°19.553 2°57.483 15.9405 0.035308 0.202744 -0.965744
2010-04-12 08:43:36 51°19.562 2°57.506 15.9126 0.035308 0.202744 -0.965744
2010-04-12 08:43:42 51°19.572 2°57.536 15.8877 0.035308 0.202744 -0.965744
2010-04-12 08:43:46 51°19.579 2°57.554 15.9061 0.035308 0.202748 -1.000568
2010-04-12 08:43:51 51°19.587 2°57.579 15.9276 0.035308 0.202748 -0.965744
2010-04-12 08:43:56 51°19.597 2°57.602 15.9172 0.035308 0.202758 -1.000568
2010-04-12 08:44:01 51°19.605 2°57.627 15.9168 0.035308 0.202761 -1.000568
2010-04-12 08:44:06 51°19.615 2°57.65 15.9137 0.035308 0.202761 -1.000568
2010-04-12 08:44:11 51°19.623 2°57.675 15.9009 0.035308 0.202768 -0.965744
2010-04-12 08:44:17 51°19.633 2°57.703 15.9037 0.035308 0.202765 -0.965744
2010-04-12 08:44:22 51°19.642 2°57.727 15.9061 0.035308 0.202772 -0.965744
2010-04-12 08:44:26 51°19.649 2°57.746 15.8926 0.035308 0.202772 -0.965744
2010-04-12 08:44:31 51°19.658 2°57.77 15.905 0.035308 0.202782 -1.035392
2010-04-12 08:44:36 51°19.667 2°57.794 15.9182 0.035308 0.202782 -1.035392
2010-04-12 08:44:42 51°19.677 2°57.823 15.9035 0.035308 0.202785 -1.000568
2010-04-12 08:44:46 51°19.684 2°57.842 15.9226 0.035308 0.202789 -0.965744
2010-04-12 08:44:51 51°19.692 2°57.866 15.9398 0.035308 0.202789 -0.965744
2010-04-12 08:44:57 51°19.702 2°57.893 15.9356 0.035308 0.202796 -0.965744
2010-04-12 08:45:02 51°19.71 2°57.914 15.9178 0.035308 0.202799 -0.965744
2010-04-12 08:45:06 51°19.716 2°57.93 15.9227 0.035308 0.202799 -0.965744
2010-04-12 08:45:11 51°19.723 2°57.95 15.9078 0.035308 0.202803 -0.93092
2010-04-12 08:45:15 51°19.728 2°57.964 15.9258 0.035308 0.202806 -0.965744
2010-04-12 08:45:21 51°19.736 2°57.985 15.8974 0.035308 0.202806 -1.000568
2010-04-12 08:45:26 51°19.741 2°58.002 15.9053 0.035308 0.20281 -0.965744
2010-04-12 08:45:31 51°19.747 2°58.018 15.8864 0.035308 0.202816 -0.93092
2010-04-12 08:45:36 51°19.751 2°58.032 15.9091 0.035308 0.202816 -0.93092
2010-04-12 08:45:42 51°19.757 2°58.049 15.9062 0.035308 0.202827 -0.965744
2010-04-12 08:45:46 51°19.76 2°58.059 15.9084 0.035308 0.20283 -0.965744
2010-04-12 08:45:51 51°19.764 2°58.07 15.8846 0.035308 0.202834 -0.93092
2010-04-12 08:45:56 51°19.767 2°58.081 15.8872 0.035308 0.202844 -1.000568
2010-04-12 08:46:02 51°19.771 2°58.093 15.9114 0.035308 0.202858 -0.965744
2010-04-12 08:46:06 51°19.774 2°58.1 15.9019 0.035308 0.202858 -0.965744
2010-04-12 08:46:11 51°19.776 2°58.108 15.8808 0.035308 0.202861 -0.965744
2010-04-12 08:46:16 51°19.779 2°58.116 15.8962 0.035308 0.202872 -0.965744
2010-04-12 08:46:21 51°19.781 2°58.123 15.926 0.035308 0.202885 -0.965744
2010-04-12 08:46:26 51°19.782 2°58.129 15.8974 0.035308 0.202903 -0.965744
2010-04-12 08:46:31 51°19.783 2°58.135 15.8934 0.035308 0.202903 -0.965744
2010-04-12 08:46:37 51°19.784 2°58.142 15.8809 0.035308 0.202903 -0.965744
2010-04-12 08:46:42 51°19.783 2°58.146 15.9093 0.035308 0.202906 -0.965744
2010-04-12 08:46:46 51°19.783 2°58.15 15.8702 0.035308 0.20292 -0.93092
2010-04-12 08:46:51 51°19.782 2°58.154 15.9217 0.035308 0.20292 -1.000568
2010-04-12 08:46:56 51°19.782 2°58.157 15.8759 0.035308 0.20293 -0.965744
2010-04-12 08:47:02 51°19.78 2°58.16 15.9007 0.035308 0.202944 -1.000568
2010-04-12 08:47:06 51°19.779 2°58.162 15.8876 0.035308 0.202944 -1.000568
2010-04-12 08:47:11 51°19.777 2°58.163 15.9218 0.035308 0.202951 -0.965744
2010-04-12 08:47:17 51°19.776 2°58.164 15.8991 0.035308 0.202958 -0.965744
2010-04-12 08:47:22 51°19.774 2°58.165 15.8832 0.035308 0.202965 -1.000568
2010-04-12 08:47:26 51°19.773 2°58.166 15.8665 0.035308 0.202972 -0.965744
2010-04-12 08:47:31 51°19.771 2°58.167 15.8689 0.035308 0.202989 -0.965744
2010-04-12 08:47:35 51°19.77 2°58.167 15.8637 0.035308 0.202989 -0.965744
2010-04-12 08:47:42 51°19.767 2°58.169 15.8855 0.035308 0.202992 -0.965744
2010-04-12 08:47:46 51°19.765 2°58.169 15.8639 0.035308 0.202999 -0.965744
2010-04-12 08:47:51 51°19.763 2°58.17 15.8595 0.035308 0.202999 -0.965744
2010-04-12 08:47:56 51°19.761 2°58.17 15.9099 0.035308 0.20301 -0.965744
2010-04-12 08:48:02 51°19.759 2°58.171 15.9099 0.035308 0.20301 -0.965744
2010-04-12 08:48:06 51°19.757 2°58.172 15.9085 0.035308 0.203037 -0.965744
2010-04-12 08:48:11 51°19.755 2°58.173 15.8848 0.035308 0.203044 -0.965744
2010-04-12 08:48:16 51°19.753 2°58.173 16.0435 0.035204 0.202456 -0.965744
2010-04-12 08:48:22 51°19.751 2°58.173 16.143 0.035308 0.203075 -1.000568
2010-04-12 08:48:26 51°19.749 2°58.173 16.1504 0.035308 0.203075 -1.000568
2010-04-12 08:48:31 51°19.747 2°58.173 16.1138 0.035308 0.203082 -0.965744
2010-04-12 08:48:37 51°19.745 2°58.173 16.0939 0.035308 0.203082 -0.965744
2010-04-12 08:48:42 51°19.743 2°58.173 16.073 0.035308 0.203086 -0.965744
2010-04-12 08:48:46 51°19.741 2°58.173 16.0616 0.035308 0.203082 -1.000568
2010-04-12 08:48:51 51°19.739 2°58.173 16.0635 0.035204 0.202487 -1.000568
2010-04-12 08:48:56 51°19.737 2°58.173 16.0669 0.035308 0.203099 -1.000568
2010-04-12 08:49:02 51°19.735 2°58.172 16.0706 0.035308 0.203096 -0.93092
2010-04-12 08:49:06 51°19.733 2°58.172 16.0607 0.035308 0.203096 -0.93092
2010-04-12 08:49:11 51°19.731 2°58.172 16.0571 0.035308 0.203117 -1.000568
2010-04-12 08:49:16 51°19.729 2°58.171 16.0537 0.035308 0.203113 -0.965744
2010-04-12 08:49:22 51°19.727 2°58.17 16.0544 0.035308 0.203106 -1.000568
2010-04-12 08:49:26 51°19.725 2°58.17 16.0603 0.035204 0.202515 -0.965744
2010-04-12 08:49:31 51°19.723 2°58.17 16.0699 0.035308 0.203117 -0.965744
2010-04-12 08:49:36 51°19.722 2°58.169 16.0625 0.035308 0.203117 -0.965744
2010-04-12 08:49:42 51°19.719 2°58.169 16.0543 0.035204 0.202515 -0.965744
2010-04-12 08:49:46 51°19.717 2°58.168 16.0689 0.035308 0.20312 -0.965744
2010-04-12 08:49:51 51°19.715 2°58.167 16.0641 0.035204 0.202521 -0.965744
2010-04-12 08:49:56 51°19.713 2°58.166 16.0621 0.035308 0.203124 -1.000568
2010-04-12 08:50:01 51°19.711 2°58.166 16.063 0.035308 0.203127 -0.965744
2010-04-12 08:50:07 51°19.708 2°58.165 16.0633 0.035308 0.203127 -0.965744
2010-04-12 08:50:11 51°19.707 2°58.164 16.061 0.035308 0.203127 -0.965744
2010-04-12 08:50:16 51°19.705 2°58.163 16.081 0.035308 0.203141 -1.000568
2010-04-12 08:50:21 51°19.702 2°58.163 16.0743 0.035204 0.202552 -0.965744
2010-04-12 08:50:27 51°19.7 2°58.162 16.0771 0.035308 0.203165 -1.000568
2010-04-12 08:50:31 51°19.698 2°58.161 16.0708 0.035308 0.203168 -1.000568
2010-04-12 08:50:36 51°19.696 2°58.16 16.07 0.035308 0.203168 -1.000568
2010-04-12 08:50:41 51°19.694 2°58.16 16.0748 0.035308 0.203168 -0.965744
2010-04-12 08:50:46 51°19.692 2°58.159 16.075 0.035308 0.203165 -0.93092
2010-04-12 08:50:51 51°19.69 2°58.158 16.0784 0.035308 0.203162 -0.965744
2010-04-12 08:50:56 51°19.688 2°58.157 16.0733 0.035204 0.202549 -0.965744
2010-04-12 08:51:02 51°19.686 2°58.156 16.0757 0.035204 0.202546 -0.965744
2010-04-12 08:51:06 51°19.684 2°58.155 16.0865 0.035204 0.202546 -0.965744
2010-04-12 08:51:11 51°19.682 2°58.155 16.0882 0.035204 0.202546 -0.965744
2010-04-12 08:51:17 51°19.68 2°58.154 16.0823 0.035308 0.203155 -0.965744
2010-04-12 08:51:22 51°19.678 2°58.153 16.0828 0.035308 0.203158 -0.965744
2010-04-12 08:51:26 51°19.676 2°58.152 16.0875 0.035204 0.202563 -1.000568
2010-04-12 08:51:31 51°19.674 2°58.151 16.0935 0.035204 0.202563 -1.000568
2010-04-12 08:51:37 51°19.671 2°58.15 16.0904 0.035308 0.203175 -1.000568
2010-04-12 08:51:41 51°19.67 2°58.149 16.0875 0.035204 0.202573 -1.000568
2010-04-12 08:51:46 51°19.668 2°58.149 16.0868 0.035308 0.203179 -0.965744
2010-04-12 08:51:51 51°19.665 2°58.148 16.0937 0.035204 0.202583 -0.965744
2010-04-12 08:51:56 51°19.663 2°58.147 16.1133 0.035308 0.203196 -0.965744
2010-04-12 08:52:01 51°19.662 2°58.147 16.1077 0.035308 0.20321 -1.000568
2010-04-12 08:52:07 51°19.659 2°58.146 16.1 0.035308 0.20321 -1.000568
2010-04-12 08:52:11 51°19.657 2°58.145 16.1102 0.035204 0.202604 -1.000568
2010-04-12 08:52:16 51°19.655 2°58.144 16.1086 0.035204 0.202621 -1.000568
2010-04-12 08:52:21 51°19.653 2°58.143 16.1033 0.035204 0.202632 -1.000568
2010-04-12 08:52:26 51°19.651 2°58.143 16.1129 0.035204 0.202632 -1.000568
2010-04-12 08:52:31 51°19.649 2°58.143 16.098 0.035204 0.202635 -1.000568
2010-04-12 08:52:36 51°19.646 2°58.143 16.1048 0.035204 0.202635 -1.000568
2010-04-12 08:52:41 51°19.644 2°58.144 16.1112 0.035204 0.202652 -1.000568
2010-04-12 08:52:46 51°19.641 2°58.146 16.1065 0.035204 0.202652 -1.000568
2010-04-12 08:52:51 51°19.638 2°58.148 16.0954 0.035308 0.203262 -0.965744
2010-04-12 08:52:56 51°19.636 2°58.152 16.0952 0.035204 0.202677 -0.965744
2010-04-12 08:53:01 51°19.633 2°58.157 16.0974 0.035204 0.202701 -1.000568
2010-04-12 08:53:06 51°19.631 2°58.162 16.103 0.035204 0.202701 -1.000568
2010-04-12 08:53:11 51°19.629 2°58.169 16.101 0.035204 0.202704 -0.965744
2010-04-12 08:53:17 51°19.627 2°58.177 16.1039 0.035204 0.202708 -0.965744
2010-04-12 08:53:21 51°19.626 2°58.183 16.1004 0.035204 0.202701 -0.965744
2010-04-12 08:53:26 51°19.625 2°58.191 16.1182 0.035204 0.202694 -1.000568
2010-04-12 08:53:31 51°19.625 2°58.199 16.1027 0.035204 0.20268 -1.000568
2010-04-12 08:53:37 51°19.625 2°58.209 16.1171 0.035204 0.20268 -1.000568
2010-04-12 08:53:42 51°19.626 2°58.218 16.1149 0.035204 0.20267 -0.965744
2010-04-12 08:53:46 51°19.627 2°58.224 16.1114 0.035204 0.202659 -0.965744
2010-04-12 08:53:51 51°19.629 2°58.233 16.1143 0.035204 0.202666 -0.965744
2010-04-12 08:53:56 51°19.631 2°58.241 16.1285 0.035204 0.202673 -0.965744
2010-04-12 08:54:01 51°19.634 2°58.249 16.1371 0.035204 0.20267 -0.965744
2010-04-12 08:54:07 51°19.638 2°58.26 16.1427 0.035204 0.20267 -0.965744
2010-04-12 08:54:11 51°19.641 2°58.268 16.1376 0.035204 0.202687 -0.965744
2010-04-12 08:54:16 51°19.646 2°58.278 16.1468 0.035204 0.202684 -0.965744
2010-04-12 08:54:21 51°19.65 2°58.29 16.1425 0.035204 0.202704 -0.965744
2010-04-12 08:54:26 51°19.655 2°58.302 16.1469 0.035204 0.202718 -1.000568
2010-04-12 08:54:31 51°19.661 2°58.314 16.1484 0.035204 0.202718 -1.000568
2010-04-12 08:54:36 51°19.666 2°58.326 16.1639 0.035204 0.202718 -1.000568
2010-04-12 08:54:41 51°19.672 2°58.34 16.1564 0.035204 0.20276 -0.965744
2010-04-12 08:54:47 51°19.679 2°58.357 16.1806 0.035204 0.202756 -0.965744
2010-04-12 08:54:51 51°19.684 2°58.368 16.1933 0.035204 0.20278 -0.965744
2010-04-12 08:54:56 51°19.69 2°58.384 16.1939 0.035204 0.202777 -0.965744
2010-04-12 08:55:01 51°19.696 2°58.4 16.2243 0.035204 0.202794 -1.000568
2010-04-12 08:55:07 51°19.703 2°58.419 16.2108 0.035204 0.202794 -1.000568
2010-04-12 08:55:11 51°19.708 2°58.433 16.2038 0.035204 0.202801 -1.000568
2010-04-12 08:55:16 51°19.713 2°58.45 16.1908 0.035204 0.202829 -1.000568
2010-04-12 08:55:21 51°19.719 2°58.467 16.2035 0.035204 0.202849 -1.000568
2010-04-12 08:55:26 51°19.725 2°58.485 16.1965 0.035204 0.20286 -1.000568
2010-04-12 08:55:31 51°19.731 2°58.505 16.216 0.035204 0.202863 -0.965744
2010-04-12 08:55:36 51°19.738 2°58.525 16.2058 0.035204 0.202863 -0.965744
2010-04-12 08:55:41 51°19.746 2°58.545 16.2526 0.035204 0.202874 -1.000568
2010-04-12 08:55:46 51°19.753 2°58.568 16.2546 0.035204 0.202877 -1.000568
2010-04-12 08:55:51 51°19.762 2°58.589 16.2849 0.035204 0.202884 -1.000568
2010-04-12 08:55:57 51°19.77 2°58.618 16.2714 0.035204 0.202891 -1.000568
2010-04-12 08:56:01 51°19.778 2°58.636 16.2943 0.035204 0.202908 -0.965744
2010-04-12 08:56:06 51°19.786 2°58.66 16.2708 0.035204 0.202908 -0.965744
2010-04-12 08:56:11 51°19.794 2°58.684 16.2874 0.035204 0.202915 -0.965744
2010-04-12 08:56:16 51°19.803 2°58.708 16.2792 0.035204 0.202926 -0.965744
2010-04-12 08:56:22 51°19.813 2°58.738 16.2708 0.035204 0.202919 -1.000568
2010-04-12 08:56:26 51°19.82 2°58.758 16.2783 0.035204 0.202926 -1.000568
2010-04-12 08:56:31 51°19.829 2°58.782 16.2725 0.035204 0.202939 -1.000568
2010-04-12 08:56:36 51°19.837 2°58.807 16.2912 0.035204 0.202939 -1.000568
2010-04-12 08:56:41 51°19.846 2°58.832 16.2738 0.035204 0.202946 -1.000568
2010-04-12 08:56:47 51°19.855 2°58.862 16.2949 0.035204 0.202943 -1.000568
2010-04-12 08:56:51 51°19.862 2°58.882 16.282 0.035204 0.202971 -0.965744
2010-04-12 08:56:57 51°19.871 2°58.913 16.2839 0.035204 0.202974 -1.000568
2010-04-12 08:57:01 51°19.878 2°58.934 16.2804 0.035204 0.202974 -1.000568
2010-04-12 08:57:06 51°19.886 2°58.959 16.2901 0.035204 0.202981 -0.965744
2010-04-12 08:57:11 51°19.893 2°58.985 16.2688 0.035204 0.202988 -0.965744
2010-04-12 08:57:16 51°19.9 2°59.012 16.3041 0.035204 0.202984 -0.965744
2010-04-12 08:57:21 51°19.909 2°59.037 16.2778 0.035204 0.202991 -1.000568
2010-04-12 08:57:26 51°19.916 2°59.063 16.2822 0.035204 0.202995 -1.000568
2010-04-12 08:57:31 51°19.923 2°59.09 16.299 0.035204 0.202995 -0.965744
2010-04-12 08:57:37 51°19.932 2°59.12 16.302 0.035204 0.202995 -0.965744
2010-04-12 08:57:41 51°19.938 2°59.142 16.3038 0.035204 0.202995 -1.000568
2010-04-12 08:57:46 51°19.946 2°59.168 16.2978 0.035204 0.202998 -0.965744
2010-04-12 08:57:51 51°19.952 2°59.195 16.3114 0.035204 0.202995 -0.965744
2010-04-12 08:57:56 51°19.96 2°59.221 16.2944 0.035204 0.203005 -0.965744
2010-04-12 08:58:01 51°19.966 2°59.248 16.317 0.035204 0.203005 -1.000568
2010-04-12 08:58:06 51°19.974 2°59.274 16.2997 0.035204 0.203005 -1.000568
2010-04-12 08:58:11 51°19.98 2°59.302 16.3139 0.035204 0.203012 -1.000568
2010-04-12 08:58:16 51°19.987 2°59.328 16.304 0.035204 0.20303 -1.000568
2010-04-12 08:58:22 51°19.994 2°59.361 16.3115 0.0351 0.202422 -0.965744
2010-04-12 08:58:26 51°20 2°59.381 16.3134 0.035204 0.203047 -0.965744
2010-04-12 08:58:31 51°20.006 2°59.409 16.3166 0.035204 0.20304 -1.000568
2010-04-12 08:58:36 51°20.013 2°59.435 16.3163 0.035204 0.20304 -1.000568
2010-04-12 08:58:42 51°20.021 2°59.468 16.3199 0.035204 0.203061 -0.965744
2010-04-12 08:58:47 51°20.027 2°59.494 16.3238 0.035204 0.203057 -1.000568
2010-04-12 08:58:51 51°20.033 2°59.515 16.3243 0.035204 0.203064 -0.965744
2010-04-12 08:58:57 51°20.04 2°59.547 16.3197 0.035204 0.203064 -0.965744
2010-04-12 08:59:02 51°20.048 2°59.574 16.3347 0.035204 0.203075 -0.965744
2010-04-12 08:59:07 51°20.053 2°59.601 16.3173 0.035204 0.203075 -0.965744
2010-04-12 08:59:11 51°20.059 2°59.622 16.327 0.035204 0.203071 -0.965744
2010-04-12 08:59:16 51°20.065 2°59.649 16.3378 0.035204 0.203082 -0.965744
2010-04-12 08:59:21 51°20.072 2°59.675 16.3325 0.035204 0.203082 -0.965744
2010-04-12 08:59:27 51°20.08 2°59.708 16.3292 0.035204 0.203095 -1.000568
2010-04-12 08:59:31 51°20.085 2°59.729 16.3317 0.035204 0.203109 -1.000568
2010-04-12 08:59:37 51°20.092 2°59.761 16.3349 0.035204 0.203109 -1.000568
2010-04-12 08:59:41 51°20.098 2°59.782 16.3486 0.0351 0.202526 -1.000568
2010-04-12 08:59:46 51°20.105 2°59.809 16.3234 0.035204 0.203134 -1.000568
2010-04-12 08:59:51 51°20.111 2°59.836 16.3538 0.035204 0.203141 -0.965744
2010-04-12 08:59:57 51°20.119 2°59.868 16.339 0.035204 0.203144 -0.93092
2010-04-12 09:00:02 51°20.126 2°59.895 16.3461 0.035204 0.203154 -0.965744
2010-04-12 09:00:06 51°20.131 2°59.916 16.3451 0.035204 0.203154 -0.965744
2010-04-12 09:00:11 51°20.138 2°59.942 16.3406 0.035204 0.203154 -1.000568
2010-04-12 09:00:17 51°20.145 2°59.974 16.3498 0.035204 0.203144 -0.965744
2010-04-12 09:00:21 51°20.151 2°59.995 16.3485 0.0351 0.202547 -1.000568
2010-04-12 09:00:26 51°20.157 3°0.022 16.3511 0.035204 0.203147 -1.000568
2010-04-12 09:00:31 51°20.165 3°0.048 16.3513 0.035204 0.203147 -1.000568
2010-04-12 09:00:37 51°20.173 3°0.08 16.3525 0.035204 0.203154 -1.000568
2010-04-12 09:00:42 51°20.179 3°0.107 16.3534 0.035204 0.203151 -1.000568
2010-04-12 09:00:46 51°20.184 3°0.128 16.3481 0.0351 0.202547 -1.000568
2010-04-12 09:00:51 51°20.191 3°0.155 16.3607 0.035204 0.203165 -0.965744
2010-04-12 09:00:56 51°20.198 3°0.182 16.3532 0.0351 0.202568 -0.965744
2010-04-12 09:01:01 51°20.204 3°0.209 16.3684 0.0351 0.202568 -0.965744
2010-04-12 09:01:07 51°20.213 3°0.241 16.3549 0.035204 0.203189 -0.965744
2010-04-12 09:01:11 51°20.218 3°0.263 16.3705 0.0351 0.202582 -1.000568
2010-04-12 09:01:17 51°20.226 3°0.294 16.3594 0.0351 0.202606 -1.000568
2010-04-12 09:01:21 51°20.231 3°0.316 16.3617 0.0351 0.202616 -0.965744
2010-04-12 09:01:27 51°20.238 3°0.349 16.3606 0.0351 0.202633 -1.000568
2010-04-12 09:01:31 51°20.244 3°0.37 16.3697 0.035204 0.203245 -0.965744
2010-04-12 09:01:36 51°20.25 3°0.397 16.3692 0.035204 0.203245 -0.965744
2010-04-12 09:01:41 51°20.257 3°0.423 16.3671 0.0351 0.20264 -0.965744
2010-04-12 09:01:47 51°20.265 3°0.456 16.365 0.035204 0.203252 -0.965744
2010-04-12 09:01:51 51°20.271 3°0.477 16.3807 0.0351 0.202665 -1.000568
2010-04-12 09:01:56 51°20.277 3°0.504 16.3719 0.0351 0.202654 -0.965744
2010-04-12 09:02:01 51°20.284 3°0.531 16.3735 0.0351 0.202685 -0.965744
2010-04-12 09:02:06 51°20.29 3°0.558 16.3716 0.0351 0.202685 -0.965744
2010-04-12 09:02:11 51°20.297 3°0.585 16.375 0.0351 0.202675 -1.000568
2010-04-12 09:02:16 51°20.304 3°0.611 16.3777 0.0351 0.202689 -1.000568
2010-04-12 09:02:22 51°20.312 3°0.643 16.3768 0.0351 0.202703 -1.000568
2010-04-12 09:02:26 51°20.317 3°0.665 16.3833 0.0351 0.202706 -1.000568
2010-04-12 09:02:31 51°20.324 3°0.692 16.382 0.0351 0.20271 -0.965744
2010-04-12 09:02:37 51°20.333 3°0.723 16.3784 0.0351 0.20271 -0.965744
2010-04-12 09:02:42 51°20.339 3°0.75 16.3827 0.0351 0.202706 -1.000568
2010-04-12 09:02:46 51°20.346 3°0.771 16.3821 0.0351 0.202706 -0.965744
2010-04-12 09:02:51 51°20.352 3°0.799 16.3774 0.0351 0.202713 -0.965744
2010-04-12 09:02:56 51°20.359 3°0.826 16.3837 0.0351 0.202724 -1.000568
2010-04-12 09:03:01 51°20.365 3°0.853 16.3904 0.0351 0.202737 -1.000568
2010-04-12 09:03:06 51°20.372 3°0.879 16.3839 0.0351 0.202737 -1.000568
2010-04-12 09:03:11 51°20.379 3°0.906 16.3944 0.0351 0.202731 -1.000568
2010-04-12 09:03:16 51°20.386 3°0.933 16.3892 0.0351 0.202737 -0.965744
2010-04-12 09:03:22 51°20.394 3°0.965 16.3911 0.0351 0.202731 -0.965744
2010-04-12 09:03:26 51°20.4 3°0.986 16.3964 0.0351 0.202734 -1.000568
2010-04-12 09:03:31 51°20.406 3°1.013 16.394 0.0351 0.202727 -0.965744
2010-04-12 09:03:37 51°20.414 3°1.045 16.3973 0.0351 0.202727 -0.965744
2010-04-12 09:03:41 51°20.42 3°1.066 16.3968 0.0351 0.202741 -1.000568
2010-04-12 09:03:47 51°20.428 3°1.099 16.3954 0.0351 0.202737 -1.000568
2010-04-12 09:03:51 51°20.434 3°1.12 16.3987 0.0351 0.202744 -1.000568
2010-04-12 09:03:56 51°20.441 3°1.146 16.4048 0.0351 0.202755 -1.000568
2010-04-12 09:04:01 51°20.448 3°1.173 16.4009 0.0351 0.202758 -1.000568
2010-04-12 09:04:06 51°20.454 3°1.2 16.4048 0.0351 0.202758 -1.000568
2010-04-12 09:04:11 51°20.461 3°1.227 16.4046 0.0351 0.202769 -0.965744
2010-04-12 09:04:16 51°20.468 3°1.254 16.4054 0.0351 0.202786 -0.965744
2010-04-12 09:04:21 51°20.475 3°1.281 16.4073 0.0351 0.202783 -0.965744
2010-04-12 09:04:26 51°20.482 3°1.308 16.4076 0.0351 0.202793 -0.965744
2010-04-12 09:04:31 51°20.489 3°1.335 16.4029 0.0351 0.202793 -0.965744
2010-04-12 09:04:36 51°20.496 3°1.361 16.4076 0.0351 0.2028 -1.000568
2010-04-12 09:04:42 51°20.503 3°1.394 16.4036 0.0351 0.202814 -0.965744
2010-04-12 09:04:46 51°20.509 3°1.415 16.4131 0.0351 0.202821 -0.965744
2010-04-12 09:04:51 51°20.516 3°1.442 16.4116 0.0351 0.202824 -1.035392
2010-04-12 09:04:55 51°20.522 3°1.464 16.4129 0.0351 0.202838 -1.000568
2010-04-12 09:05:02 51°20.531 3°1.501 16.42 0.0351 0.202845 -1.000568
2010-04-12 09:05:06 51°20.537 3°1.522 16.4125 0.0351 0.202845 -1.000568
2010-04-12 09:05:11 51°20.544 3°1.549 16.4125 0.0351 0.202838 -1.000568
2010-04-12 09:05:16 51°20.55 3°1.576 16.4159 0.0351 0.202845 -1.000568
2010-04-12 09:05:21 51°20.558 3°1.603 16.4187 0.0351 0.202835 -0.965744
2010-04-12 09:05:26 51°20.565 3°1.63 16.4195 0.0351 0.202831 -0.965744
2010-04-12 09:05:31 51°20.572 3°1.656 16.4181 0.0351 0.202835 -0.965744
2010-04-12 09:05:36 51°20.579 3°1.684 16.42 0.0351 0.202835 -0.965744
2010-04-12 09:05:41 51°20.586 3°1.711 16.4226 0.0351 0.202831 -0.965744
2010-04-12 09:05:46 51°20.593 3°1.737 16.4215 0.0351 0.202838 -0.965744
2010-04-12 09:05:51 51°20.6 3°1.764 16.4247 0.0351 0.202838 -0.965744
2010-04-12 09:05:57 51°20.607 3°1.797 16.4276 0.0351 0.202845 -1.000568
2010-04-12 09:06:01 51°20.613 3°1.818 16.4271 0.0351 0.202855 -0.965744
2010-04-12 09:06:07 51°20.621 3°1.851 16.4323 0.0351 0.202855 -0.965744
2010-04-12 09:06:11 51°20.627 3°1.872 16.43 0.0351 0.202849 -1.000568
2010-04-12 09:06:16 51°20.634 3°1.899 16.4258 0.0351 0.202862 -0.93092
2010-04-12 09:06:21 51°20.641 3°1.926 16.4336 0.0351 0.202876 -0.93092
2010-04-12 09:06:26 51°20.648 3°1.953 16.4249 0.0351 0.202866 -1.000568
2010-04-12 09:06:31 51°20.655 3°1.98 16.4348 0.0351 0.202876 -0.965744
2010-04-12 09:06:36 51°20.662 3°2.007 16.4292 0.0351 0.202876 -0.965744
2010-04-12 09:06:41 51°20.669 3°2.034 16.4329 0.0351 0.202876 -0.965744
2010-04-12 09:06:46 51°20.676 3°2.061 16.4339 0.0351 0.20288 -0.965744
2010-04-12 09:06:51 51°20.682 3°2.088 16.4307 0.0351 0.202883 -1.000568
2010-04-12 09:06:56 51°20.69 3°2.115 16.4338 0.0351 0.202894 -1.000568
2010-04-12 09:07:02 51°20.698 3°2.148 16.4408 0.0351 0.20289 -1.000568
2010-04-12 09:07:06 51°20.704 3°2.168 16.4338 0.0351 0.20289 -1.000568
2010-04-12 09:07:11 51°20.71 3°2.196 16.4435 0.0351 0.202901 -1.000568
2010-04-12 09:07:15 51°20.717 3°2.217 16.4373 0.0351 0.202911 -0.965744
2010-04-12 09:07:22 51°20.726 3°2.256 16.4453 0.0351 0.202908 -0.93092
2010-04-12 09:07:26 51°20.733 3°2.277 16.4396 0.0351 0.202922 -0.965744
2010-04-12 09:07:31 51°20.739 3°2.304 16.4485 0.0351 0.202932 -0.965744
2010-04-12 09:07:36 51°20.747 3°2.331 16.4426 0.0351 0.202932 -0.965744
2010-04-12 09:07:41 51°20.753 3°2.358 16.4504 0.0351 0.202932 -0.965744
2010-04-12 09:07:47 51°20.762 3°2.39 16.4466 0.0351 0.202942 -0.965744
2010-04-12 09:07:51 51°20.767 3°2.412 16.4494 0.0351 0.202935 -0.965744
2010-04-12 09:07:56 51°20.775 3°2.439 16.4475 0.0351 0.202949 -0.965744
2010-04-12 09:08:01 51°20.781 3°2.467 16.4481 0.0351 0.202953 -0.965744
2010-04-12 09:08:06 51°20.789 3°2.494 16.451 0.0351 0.202953 -0.965744
2010-04-12 09:08:11 51°20.796 3°2.521 16.4542 0.0351 0.20296 -1.000568
2010-04-12 09:08:16 51°20.802 3°2.547 16.4501 0.0351 0.202963 -0.965744
2010-04-12 09:08:22 51°20.81 3°2.58 16.4539 0.0351 0.202967 -1.000568
2010-04-12 09:08:26 51°20.817 3°2.602 16.455 0.0351 0.202967 -0.965744
2010-04-12 09:08:31 51°20.823 3°2.629 16.4547 0.0351 0.202967 -0.965744
2010-04-12 09:08:37 51°20.832 3°2.661 16.4543 0.0351 0.202967 -0.965744
2010-04-12 09:08:41 51°20.837 3°2.684 16.4589 0.0351 0.202974 -0.965744
2010-04-12 09:08:46 51°20.845 3°2.71 16.4558 0.0351 0.202981 -0.965744
2010-04-12 09:08:51 51°20.851 3°2.738 16.4572 0.0351 0.202988 -1.000568
2010-04-12 09:08:56 51°20.859 3°2.765 16.4605 0.0351 0.202995 -0.965744
2010-04-12 09:09:01 51°20.865 3°2.792 16.4611 0.0351 0.202995 -1.000568
2010-04-12 09:09:06 51°20.872 3°2.819 16.4594 0.0351 0.202995 -1.000568
2010-04-12 09:09:11 51°20.879 3°2.847 16.4641 0.0351 0.202991 -1.000568
2010-04-12 09:09:17 51°20.888 3°2.879 16.4626 0.0351 0.202995 -1.000568
2010-04-12 09:09:21 51°20.894 3°2.901 16.4655 0.0351 0.202991 -1.000568
2010-04-12 09:09:27 51°20.902 3°2.934 16.463 0.0351 0.202995 -0.965744
2010-04-12 09:09:31 51°20.908 3°2.956 16.4684 0.0351 0.202998 -0.965744
2010-04-12 09:09:37 51°20.917 3°2.988 16.4655 0.0351 0.202998 -0.965744
2010-04-12 09:09:42 51°20.923 3°3.016 16.4691 0.034996 0.202389 -0.965744
2010-04-12 09:09:46 51°20.929 3°3.038 16.4686 0.0351 0.203012 -0.965744
2010-04-12 09:09:51 51°20.936 3°3.065 16.4686 0.0351 0.203019 -0.965744
2010-04-12 09:09:56 51°20.943 3°3.092 16.4694 0.0351 0.203026 -1.000568
2010-04-12 09:10:01 51°20.951 3°3.119 16.4719 0.0351 0.203026 -0.965744
2010-04-12 09:10:06 51°20.958 3°3.146 16.4716 0.0351 0.203026 -0.965744
2010-04-12 09:10:11 51°20.965 3°3.174 16.4743 0.0351 0.203033 -0.965744
2010-04-12 09:10:16 51°20.972 3°3.201 16.4742 0.0351 0.20304 -1.000568
2010-04-12 09:10:21 51°20.979 3°3.229 16.4739 0.0351 0.203054 -1.000568
2010-04-12 09:10:27 51°20.988 3°3.261 16.4764 0.0351 0.203057 -1.000568
2010-04-12 09:10:31 51°20.993 3°3.283 16.4766 0.0351 0.203054 -0.965744
2010-04-12 09:10:36 51°21 3°3.31 16.4773 0.0351 0.203054 -0.965744
2010-04-12 09:10:41 51°21.007 3°3.338 16.4771 0.0351 0.203057 -0.965744
2010-04-12 09:10:46 51°21.014 3°3.365 16.4787 0.0351 0.203064 -0.965744
2010-04-12 09:10:51 51°21.021 3°3.392 16.4793 0.0351 0.203064 -0.965744
2010-04-12 09:10:56 51°21.028 3°3.42 16.4815 0.0351 0.203064 -0.965744
2010-04-12 09:11:01 51°21.035 3°3.447 16.4797 0.034996 0.202452 -1.000568
2010-04-12 09:11:06 51°21.042 3°3.474 16.4822 0.034996 0.202452 -1.000568
2010-04-12 09:11:11 51°21.049 3°3.501 16.4827 0.0351 0.203068 -0.965744
2010-04-12 09:11:16 51°21.055 3°3.529 16.4839 0.0351 0.203071 -0.965744
2010-04-12 09:11:22 51°21.064 3°3.561 16.4839 0.034996 0.202462 -0.965744
2010-04-12 09:11:26 51°21.07 3°3.583 16.4851 0.034996 0.202462 -1.000568
2010-04-12 09:11:31 51°21.078 3°3.61 16.4869 0.034996 0.202476 -1.000568
2010-04-12 09:11:37 51°21.086 3°3.643 16.4875 0.034996 0.202476 -1.000568
2010-04-12 09:11:41 51°21.092 3°3.664 16.489 0.0351 0.203092 -0.965744
2010-04-12 09:11:46 51°21.099 3°3.692 16.489 0.0351 0.203092 -0.965744
2010-04-12 09:11:51 51°21.107 3°3.719 16.49 0.034996 0.202483 -0.965744
2010-04-12 09:11:56 51°21.114 3°3.746 16.4901 0.034996 0.20249 -1.000568
2010-04-12 09:12:01 51°21.121 3°3.773 16.4915 0.034996 0.202497 -0.965744
2010-04-12 09:12:06 51°21.129 3°3.799 16.492 0.034996 0.202497 -0.965744
2010-04-12 09:12:11 51°21.136 3°3.827 16.4931 0.034996 0.202507 -0.965744
2010-04-12 09:12:16 51°21.143 3°3.854 16.4936 0.034996 0.202514 -0.965744
2010-04-12 09:12:22 51°21.153 3°3.886 16.4954 0.034996 0.202528 -0.965744
2010-04-12 09:12:26 51°21.158 3°3.908 16.4958 0.034996 0.202524 -0.965744
2010-04-12 09:12:31 51°21.165 3°3.935 16.4955 0.034996 0.202531 -0.965744
2010-04-12 09:12:37 51°21.174 3°3.968 16.4967 0.034996 0.202531 -0.965744
2010-04-12 09:12:41 51°21.179 3°3.99 16.4981 0.034996 0.202538 -1.000568
2010-04-12 09:12:47 51°21.188 3°4.022 16.4993 0.0351 0.203151 -1.000568
2010-04-12 09:12:51 51°21.194 3°4.043 16.4974 0.034996 0.202559 -1.000568
2010-04-12 09:12:56 51°21.2 3°4.071 16.5003 0.034996 0.202591 -0.965744
2010-04-12 09:13:01 51°21.208 3°4.098 16.5002 0.0351 0.203197 -0.965744
2010-04-12 09:13:06 51°21.215 3°4.125 16.5022 0.0351 0.203197 -0.965744
2010-04-12 09:13:11 51°21.222 3°4.152 16.5028 0.034996 0.202584 -0.965744
2010-04-12 09:13:16 51°21.229 3°4.179 16.5033 0.034996 0.202591 -0.965744
2010-04-12 09:13:21 51°21.236 3°4.206 16.5037 0.034996 0.202604 -0.965744
2010-04-12 09:13:26 51°21.243 3°4.233 16.5047 0.034996 0.202604 -0.965744
2010-04-12 09:13:31 51°21.25 3°4.26 16.5063 0.034996 0.202608 -1.000568
2010-04-12 09:13:36 51°21.257 3°4.287 16.5072 0.034996 0.202608 -1.000568
2010-04-12 09:13:42 51°21.266 3°4.32 16.508 0.034996 0.202608 -1.000568
2010-04-12 09:13:46 51°21.271 3°4.342 16.5091 0.034996 0.202615 -0.965744
2010-04-12 09:13:51 51°21.278 3°4.369 16.5091 0.034996 0.202625 -0.965744
2010-04-12 09:13:57 51°21.287 3°4.401 16.5096 0.034996 0.202615 -0.965744
2010-04-12 09:14:02 51°21.294 3°4.428 16.5119 0.034996 0.202625 -0.93092
2010-04-12 09:14:06 51°21.3 3°4.45 16.5112 0.034996 0.202625 -0.93092
2010-04-12 09:14:11 51°21.307 3°4.478 16.5134 0.034996 0.202618 -1.000568
2010-04-12 09:14:16 51°21.314 3°4.505 16.5139 0.034996 0.202632 -0.965744
2010-04-12 09:14:21 51°21.321 3°4.532 16.5148 0.034996 0.202632 -0.965744
2010-04-12 09:14:27 51°21.329 3°4.564 16.514 0.034996 0.202639 -0.965744
2010-04-12 09:14:31 51°21.335 3°4.586 16.5159 0.034996 0.202664 -0.965744
2010-04-12 09:14:36 51°21.342 3°4.613 16.517 0.034996 0.202664 -0.965744
2010-04-12 09:14:42 51°21.351 3°4.646 16.518 0.034996 0.20266 -0.965744
2010-04-12 09:14:47 51°21.358 3°4.673 16.5188 0.034996 0.202664 -0.965744
2010-04-12 09:14:51 51°21.363 3°4.695 16.5197 0.034996 0.202664 -1.000568
2010-04-12 09:14:56 51°21.371 3°4.722 16.5212 0.034996 0.20266 -0.965744
2010-04-12 09:15:01 51°21.376 3°4.751 16.5214 0.034996 0.20266 -0.965744
2010-04-12 09:15:07 51°21.384 3°4.784 16.5228 0.034996 0.202671 -1.000568
2010-04-12 09:15:11 51°21.389 3°4.806 16.5204 0.034996 0.202671 -0.965744
2010-04-12 09:15:16 51°21.394 3°4.835 16.524 0.034996 0.202667 -1.000568
2010-04-12 09:15:21 51°21.401 3°4.863 16.5241 0.034996 0.202698 -1.000568
2010-04-12 09:15:26 51°21.406 3°4.891 16.5256 0.034996 0.202712 -1.000568
2010-04-12 09:15:31 51°21.412 3°4.919 16.5269 0.034996 0.202712 -1.000568
2010-04-12 09:15:36 51°21.418 3°4.947 16.5273 0.034996 0.202712 -1.000568
2010-04-12 09:15:41 51°21.424 3°4.975 16.5282 0.034996 0.202712 -0.965744
2010-04-12 09:15:46 51°21.43 3°5.003 16.5286 0.034996 0.202723 -0.965744
2010-04-12 09:15:51 51°21.435 3°5.031 16.5257 0.034996 0.202726 -1.000568
2010-04-12 09:15:56 51°21.441 3°5.059 16.5273 0.034996 0.202744 -0.965744
2010-04-12 09:16:02 51°21.449 3°5.093 16.5297 0.034996 0.202744 -0.965744
2010-04-12 09:16:06 51°21.453 3°5.115 16.53 0.034996 0.202744 -0.965744
2010-04-12 09:16:11 51°21.459 3°5.144 16.5307 0.034996 0.20274 -0.965744
2010-04-12 09:16:17 51°21.466 3°5.178 16.5328 0.034996 0.20274 -0.965744
2010-04-12 09:16:22 51°21.472 3°5.206 16.5332 0.034996 0.202744 -0.965744
2010-04-12 09:16:27 51°21.478 3°5.234 16.5348 0.034996 0.202747 -0.965744
2010-04-12 09:16:31 51°21.483 3°5.257 16.5356 0.034996 0.202744 -0.965744
2010-04-12 09:16:37 51°21.489 3°5.291 16.5364 0.034996 0.202744 -0.965744
2010-04-12 09:16:42 51°21.496 3°5.319 16.5379 0.034996 0.202747 -0.965744
2010-04-12 09:16:46 51°21.5 3°5.342 16.5378 0.034996 0.202744 -1.000568
2010-04-12 09:16:51 51°21.507 3°5.37 16.5394 0.034996 0.202754 -0.965744
2010-04-12 09:16:56 51°21.512 3°5.399 16.5403 0.034996 0.202751 -1.000568
2010-04-12 09:17:01 51°21.518 3°5.427 16.5414 0.034996 0.202765 -0.965744
2010-04-12 09:17:07 51°21.525 3°5.462 16.5424 0.034996 0.202765 -0.965744
2010-04-12 09:17:11 51°21.529 3°5.485 16.5416 0.034996 0.202775 -0.965744
2010-04-12 09:17:16 51°21.535 3°5.513 16.5395 0.034996 0.20281 -0.93092
2010-04-12 09:17:21 51°21.541 3°5.541 16.5433 0.034996 0.202841 -0.965744
2010-04-12 09:17:26 51°21.547 3°5.569 16.5435 0.034996 0.202848 -0.965744
2010-04-12 09:17:31 51°21.553 3°5.597 16.5446 0.034996 0.202848 -0.965744
2010-04-12 09:17:36 51°21.559 3°5.625 16.5454 0.034996 0.202848 -0.965744
2010-04-12 09:17:41 51°21.565 3°5.654 16.5466 0.034996 0.202845 -0.965744
2010-04-12 09:17:46 51°21.571 3°5.682 16.5477 0.034996 0.202838 -1.000568
2010-04-12 09:17:51 51°21.577 3°5.71 16.5492 0.034996 0.202834 -1.000568
2010-04-12 09:17:56 51°21.582 3°5.739 16.5494 0.034996 0.202827 -0.965744
2010-04-12 09:18:01 51°21.589 3°5.767 16.5516 0.034996 0.202817 -1.000568
2010-04-12 09:18:06 51°21.594 3°5.796 16.5516 0.034996 0.202817 -1.000568
2010-04-12 09:18:11 51°21.601 3°5.824 16.5532 0.034996 0.202813 -0.965744
2010-04-12 09:18:17 51°21.607 3°5.858 16.5527 0.034996 0.20281 -0.965744
2010-04-12 09:18:21 51°21.613 3°5.88 16.5552 0.034996 0.202817 -0.93092
2010-04-12 09:18:26 51°21.618 3°5.91 16.5551 0.034996 0.202813 -1.000568
2010-04-12 09:18:31 51°21.624 3°5.938 16.5572 0.034996 0.202824 -0.965744
2010-04-12 09:18:37 51°21.63 3°5.972 16.5573 0.034996 0.202824 -0.965744
2010-04-12 09:18:42 51°21.637 3°6 16.5585 0.034996 0.202824 -0.965744
2010-04-12 09:18:46 51°21.641 3°6.023 16.5592 0.034996 0.202838 -0.965744
2010-04-12 09:18:51 51°21.648 3°6.051 16.5604 0.034996 0.202845 -0.93092
2010-04-12 09:18:56 51°21.653 3°6.08 16.5596 0.034996 0.202845 -0.965744
2010-04-12 09:19:02 51°21.661 3°6.114 16.5633 0.034996 0.202848 -1.000568
2010-04-12 09:19:07 51°21.666 3°6.143 16.5628 0.034996 0.202848 -1.000568
2010-04-12 09:19:11 51°21.672 3°6.165 16.5648 0.034996 0.202852 -1.000568
2010-04-12 09:19:17 51°21.678 3°6.199 16.5637 0.034996 0.202855 -0.965744